| time (UTC) | temp C | wind direction | speed KPH | gust KPH | rain 1hr cm | rain 24hr cm | rain mn cm | humidity % | barometer mb |
| 20260507230904 | 18 | 194 | 4.8 | 17.7 | 0.00 | 0.00 | 0.00 | 81 | 1008.4 |
| 20260507230804 | 18 | 193 | 4.8 | 17.7 | 0.00 | 0.00 | 0.00 | 81 | 1008.4 |
| 20260507230704 | 18 | 193 | 4.8 | 16.1 | 0.00 | 0.00 | 0.00 | 81 | 1008.5 |
| 20260507230604 | 18 | 193 | 4.8 | 16.1 | 0.00 | 0.00 | 0.00 | 80 | 1008.4 |
| 20260507230505 | 18 | 194 | 4.8 | 16.1 | 0.00 | 0.00 | 0.00 | 81 | 1008.4 |
| 20260507230405 | 18 | 197 | 4.8 | 14.5 | 0.00 | 0.00 | 0.00 | 80 | 1008.3 |
| 20260507230306 | 18 | 198 | 4.8 | 12.9 | 0.00 | 0.00 | 0.00 | 80 | 1008.3 |
| 20260507230205 | 18 | 201 | 4.8 | 12.9 | 0.00 | 0.00 | 0.00 | 80 | 1008.3 |
| 20260507230104 | 18 | 200 | 4.8 | 12.9 | 0.00 | 0.00 | 0.00 | 80 | 1008.2 |
| 20260507230005 | 18 | 199 | 6.4 | 12.9 | 0.00 | 0.00 | 0.00 | 80 | 1008.2 |
| 20260507225910 | 18 | 198 | 6.4 | 12.9 | 0.00 | 0.00 | 0.00 | 80 | 1008.2 |
| 20260507225805 | 18 | 197 | 6.4 | 12.9 | 0.00 | 0.00 | 0.00 | 80 | 1008.2 |
| 20260507225705 | 18 | 197 | 6.4 | 12.9 | 0.00 | 0.00 | 0.00 | 80 | 1008.3 |
| 20260507225605 | 18 | 198 | 6.4 | 12.9 | 0.00 | 0.00 | 0.00 | 80 | 1008.2 |
| 20260507225504 | 18 | 198 | 6.4 | 11.3 | 0.00 | 0.00 | 0.00 | 80 | 1008.2 |
| 20260507225404 | 18 | 198 | 6.4 | 11.3 | 0.00 | 0.00 | 0.00 | 80 | 1008.2 |
| 20260507225306 | 18 | 198 | 6.4 | 11.3 | 0.00 | 0.00 | 0.00 | 80 | 1008.2 |
| 20260507225204 | 18 | 197 | 6.4 | 11.3 | 0.00 | 0.00 | 0.00 | 80 | 1008.2 |
| 20260507225104 | 18 | 198 | 6.4 | 12.9 | 0.00 | 0.00 | 0.00 | 80 | 1008.0 |
| 20260507225008 | 18 | 199 | 6.4 | 16.1 | 0.00 | 0.00 | 0.00 | 80 | 1008.0 |
| 20260507224906 | 18 | 200 | 6.4 | 16.1 | 0.00 | 0.00 | 0.00 | 80 | 1008.1 |
| 20260507224806 | 18 | 200 | 6.4 | 16.1 | 0.00 | 0.00 | 0.00 | 80 | 1008.1 |
| 20260507224705 | 18 | 198 | 6.4 | 16.1 | 0.00 | 0.00 | 0.00 | 80 | 1008.1 |
| 20260507224605 | 18 | 200 | 4.8 | 16.1 | 0.00 | 0.00 | 0.00 | 80 | 1008.0 |
| 20260507224505 | 18 | 201 | 4.8 | 16.1 | 0.00 | 0.00 | 0.00 | 80 | 1008.0 |
| 20260507224405 | 18 | 200 | 4.8 | 16.1 | 0.00 | 0.00 | 0.00 | 79 | 1007.9 |
| 20260507224304 | 18 | 198 | 4.8 | 16.1 | 0.00 | 0.00 | 0.00 | 79 | 1007.9 |
| 20260507224204 | 18 | 199 | 4.8 | 16.1 | 0.00 | 0.00 | 0.00 | 79 | 1007.9 |
| 20260507224104 | 18 | 196 | 4.8 | 16.1 | 0.00 | 0.00 | 0.00 | 79 | 1007.9 |
| 20260507224004 | 18 | 196 | 4.8 | 14.5 | 0.00 | 0.00 | 0.00 | 79 | 1007.9 |
| 20260507223904 | 18 | 196 | 4.8 | 14.5 | 0.00 | 0.00 | 0.00 | 79 | 1007.9 |
| 20260507223804 | 18 | 194 | 4.8 | 14.5 | 0.00 | 0.00 | 0.00 | 79 | 1008.0 |
| 20260507223704 | 18 | 196 | 4.8 | 14.5 | 0.00 | 0.00 | 0.00 | 79 | 1008.0 |
| 20260507223604 | 18 | 193 | 4.8 | 14.5 | 0.00 | 0.00 | 0.00 | 79 | 1008.0 |
| 20260507223505 | 18 | 190 | 4.8 | 14.5 | 0.00 | 0.00 | 0.00 | 78 | 1008.1 |
| 20260507223405 | 18 | 190 | 4.8 | 14.5 | 0.00 | 0.00 | 0.00 | 78 | 1008.1 |
| 20260507223304 | 18 | 191 | 4.8 | 14.5 | 0.00 | 0.00 | 0.00 | 78 | 1008.2 |
| 20260507223206 | 18 | 191 | 4.8 | 14.5 | 0.00 | 0.00 | 0.00 | 78 | 1008.2 |
| 20260507223105 | 18 | 193 | 4.8 | 14.5 | 0.00 | 0.00 | 0.00 | 78 | 1008.2 |
| 20260507223004 | 18 | 192 | 4.8 | 14.5 | 0.00 | 0.00 | 0.00 | 78 | 1008.3 |
| 20260507222904 | 18 | 191 | 4.8 | 14.5 | 0.00 | 0.00 | 0.00 | 78 | 1008.3 |
| 20260507222805 | 18 | 193 | 4.8 | 14.5 | 0.00 | 0.00 | 0.00 | 78 | 1008.3 |
| 20260507222705 | 18 | 193 | 4.8 | 14.5 | 0.00 | 0.00 | 0.00 | 77 | 1008.3 |
| 20260507222605 | 18 | 196 | 4.8 | 14.5 | 0.00 | 0.00 | 0.00 | 77 | 1008.3 |
| 20260507222505 | 18 | 197 | 4.8 | 14.5 | 0.00 | 0.00 | 0.00 | 77 | 1008.1 |
| 20260507222404 | 18 | 198 | 4.8 | 14.5 | 0.00 | 0.00 | 0.00 | 77 | 1008.1 |
| 20260507222306 | 19 | 197 | 4.8 | 14.5 | 0.00 | 0.00 | 0.00 | 77 | 1008.2 |
| 20260507222204 | 19 | 198 | 6.4 | 14.5 | 0.00 | 0.00 | 0.00 | 77 | 1008.1 |
| 20260507222105 | 19 | 195 | 6.4 | 14.5 | 0.00 | 0.00 | 0.00 | 77 | 1008.1 |
| 20260507222005 | 19 | 200 | 6.4 | 14.5 | 0.00 | 0.00 | 0.00 | 77 | 1008.2 |
| 20260507221904 | 19 | 199 | 6.4 | 14.5 | 0.00 | 0.00 | 0.00 | 77 | 1008.2 |
| 20260507221806 | 19 | 200 | 6.4 | 14.5 | 0.00 | 0.00 | 0.00 | 77 | 1008.2 |
| 20260507221712 | 19 | 201 | 6.4 | 14.5 | 0.00 | 0.00 | 0.00 | 77 | 1008.1 |
| 20260507221605 | 19 | 200 | 6.4 | 14.5 | 0.00 | 0.00 | 0.00 | 77 | 1008.1 |
| 20260507221505 | 19 | 201 | 6.4 | 14.5 | 0.00 | 0.00 | 0.00 | 77 | 1008.0 |
| 20260507221404 | 19 | 199 | 6.4 | 14.5 | 0.00 | 0.00 | 0.00 | 77 | 1008.0 |
| 20260507221304 | 19 | 199 | 6.4 | 14.5 | 0.00 | 0.00 | 0.00 | 77 | 1008.0 |
| 20260507221204 | 19 | 198 | 6.4 | 14.5 | 0.00 | 0.00 | 0.00 | 77 | 1008.0 |
| 20260507221104 | 19 | 199 | 6.4 | 14.5 | 0.00 | 0.00 | 0.00 | 77 | 1008.0 |
| 20260507221004 | 19 | 199 | 8.0 | 14.5 | 0.00 | 0.00 | 0.00 | 76 | 1007.9 |
| 20260507220904 | 19 | 197 | 8.0 | 14.5 | 0.00 | 0.00 | 0.00 | 76 | 1007.9 |
| 20260507220804 | 19 | 195 | 8.0 | 14.5 | 0.00 | 0.00 | 0.00 | 76 | 1007.9 |
| 20260507220704 | 19 | 195 | 8.0 | 14.5 | 0.00 | 0.00 | 0.00 | 76 | 1007.9 |
| 20260507220605 | 19 | 196 | 8.0 | 17.7 | 0.00 | 0.00 | 0.00 | 76 | 1007.9 |
| 20260507220506 | 19 | 194 | 8.0 | 19.3 | 0.00 | 0.00 | 0.00 | 76 | 1007.9 |
| 20260507220405 | 19 | 195 | 8.0 | 19.3 | 0.00 | 0.00 | 0.00 | 76 | 1007.9 |
| 20260507220304 | 19 | 194 | 8.0 | 19.3 | 0.00 | 0.00 | 0.00 | 76 | 1007.9 |
| 20260507220207 | 19 | 196 | 8.0 | 19.3 | 0.00 | 0.00 | 0.00 | 76 | 1007.9 |
| 20260507220104 | 19 | 196 | 8.0 | 19.3 | 0.00 | 0.00 | 0.00 | 76 | 1007.9 |
| 20260507220036 | 19 | 195 | 8.0 | 19.3 | 0.00 | 0.00 | 0.00 | 76 | 1007.9 |
| 20260507215903 | 19 | 193 | 8.0 | 19.3 | 0.00 | 0.00 | 0.00 | 76 | 1008.0 |
| 20260507215804 | 19 | 193 | 8.0 | 19.3 | 0.00 | 0.00 | 0.00 | 76 | 1008.0 |
| 20260507215704 | 19 | 193 | 8.0 | 19.3 | 0.00 | 0.00 | 0.00 | 76 | 1007.9 |
| 20260507215604 | 19 | 191 | 8.0 | 19.3 | 0.00 | 0.00 | 0.00 | 76 | 1007.9 |
| 20260507215504 | 19 | 192 | 8.0 | 16.1 | 0.00 | 0.00 | 0.00 | 75 | 1007.9 |
| 20260507215404 | 19 | 190 | 8.0 | 16.1 | 0.00 | 0.00 | 0.00 | 75 | 1007.9 |
| 20260507215306 | 19 | 193 | 8.0 | 16.1 | 0.00 | 0.00 | 0.00 | 75 | 1007.9 |
| 20260507215204 | 19 | 193 | 8.0 | 16.1 | 0.00 | 0.00 | 0.00 | 75 | 1007.8 |
| 20260507215103 | 19 | 194 | 8.0 | 16.1 | 0.00 | 0.00 | 0.00 | 75 | 1007.9 |
| 20260507215004 | 19 | 196 | 8.0 | 16.1 | 0.00 | 0.00 | 0.00 | 75 | 1007.9 |
| 20260507214910 | 19 | 196 | 8.0 | 16.1 | 0.00 | 0.00 | 0.00 | 75 | 1007.9 |
| 20260507214805 | 19 | 197 | 8.0 | 17.7 | 0.00 | 0.00 | 0.00 | 75 | 1007.9 |
| 20260507214704 | 19 | 198 | 8.0 | 17.7 | 0.00 | 0.00 | 0.00 | 75 | 1007.9 |
| 20260507214605 | 19 | 202 | 8.0 | 17.7 | 0.00 | 0.00 | 0.00 | 75 | 1007.9 |
| 20260507214504 | 19 | 202 | 8.0 | 17.7 | 0.00 | 0.00 | 0.00 | 75 | 1007.9 |
| 20260507214404 | 19 | 202 | 8.0 | 17.7 | 0.00 | 0.00 | 0.00 | 75 | 1007.8 |
| 20260507214304 | 19 | 203 | 8.0 | 17.7 | 0.00 | 0.00 | 0.00 | 75 | 1007.8 |
| 20260507214204 | 19 | 201 | 8.0 | 17.7 | 0.00 | 0.00 | 0.00 | 75 | 1008.0 |
| 20260507214104 | 19 | 200 | 8.0 | 17.7 | 0.00 | 0.00 | 0.00 | 75 | 1007.9 |
| 20260507214004 | 19 | 200 | 8.0 | 17.7 | 0.00 | 0.00 | 0.00 | 75 | 1007.9 |
| 20260507213904 | 19 | 201 | 8.0 | 17.7 | 0.00 | 0.00 | 0.00 | 75 | 1007.8 |
| 20260507213804 | 19 | 201 | 6.4 | 17.7 | 0.00 | 0.00 | 0.00 | 74 | 1007.8 |
| 20260507213704 | 19 | 199 | 6.4 | 17.7 | 0.00 | 0.00 | 0.00 | 74 | 1007.8 |
| 20260507213604 | 19 | 196 | 6.4 | 17.7 | 0.00 | 0.00 | 0.00 | 74 | 1007.9 |
| 20260507213505 | 19 | 196 | 6.4 | 17.7 | 0.00 | 0.00 | 0.00 | 74 | 1007.9 |
| 20260507213405 | 19 | 195 | 6.4 | 17.7 | 0.00 | 0.00 | 0.00 | 74 | 1008.0 |
| 20260507213305 | 19 | 194 | 6.4 | 17.7 | 0.00 | 0.00 | 0.00 | 74 | 1008.1 |
| 20260507213207 | 19 | 194 | 6.4 | 17.7 | 0.00 | 0.00 | 0.00 | 74 | 1008.1 |
| 20260507213107 | 19 | 194 | 6.4 | 16.1 | 0.00 | 0.00 | 0.00 | 74 | 1008.1 |
| 20260507213005 | 19 | 194 | 6.4 | 16.1 | 0.00 | 0.00 | 0.00 | 73 | 1008.1 |
| 20260507212906 | 19 | 195 | 6.4 | 16.1 | 0.00 | 0.00 | 0.00 | 73 | 1008.1 |
| 20260507212805 | 19 | 197 | 8.0 | 16.1 | 0.00 | 0.00 | 0.00 | 73 | 1008.1 |
| 20260507212705 | 19 | 198 | 8.0 | 16.1 | 0.00 | 0.00 | 0.00 | 73 | 1008.1 |
| 20260507212605 | 19 | 198 | 8.0 | 14.5 | 0.00 | 0.00 | 0.00 | 73 | 1008.2 |
| 20260507212505 | 19 | 197 | 8.0 | 14.5 | 0.00 | 0.00 | 0.00 | 73 | 1008.2 |
| 20260507212405 | 19 | 199 | 8.0 | 14.5 | 0.00 | 0.00 | 0.00 | 73 | 1008.3 |
| 20260507212307 | 19 | 200 | 8.0 | 14.5 | 0.00 | 0.00 | 0.00 | 73 | 1008.3 |
| 20260507212205 | 19 | 200 | 8.0 | 20.9 | 0.00 | 0.00 | 0.00 | 73 | 1008.3 |
| 20260507212105 | 19 | 199 | 8.0 | 20.9 | 0.00 | 0.00 | 0.00 | 73 | 1008.3 |
| 20260507212006 | 19 | 200 | 8.0 | 20.9 | 0.00 | 0.00 | 0.00 | 73 | 1008.3 |
| 20260507211806 | 20 | 198 | 8.0 | 20.9 | 0.00 | 0.00 | 0.00 | 73 | 1008.4 |
| 20260507211704 | 19 | 198 | 8.0 | 20.9 | 0.00 | 0.00 | 0.00 | 73 | 1008.4 |
| 20260507211607 | 19 | 199 | 8.0 | 20.9 | 0.00 | 0.00 | 0.00 | 73 | 1008.5 |
| 20260507211505 | 20 | 199 | 8.0 | 20.9 | 0.00 | 0.00 | 0.00 | 73 | 1008.5 |
| 20260507211405 | 20 | 198 | 8.0 | 20.9 | 0.00 | 0.00 | 0.00 | 73 | 1008.5 |
| 20260507211305 | 20 | 199 | 8.0 | 20.9 | 0.00 | 0.00 | 0.00 | 73 | 1008.4 |
| 20260507211205 | 20 | 201 | 8.0 | 19.3 | 0.00 | 0.00 | 0.00 | 73 | 1008.4 |
| 20260507211004 | 20 | 200 | 6.4 | 19.3 | 0.00 | 0.00 | 0.00 | 73 | 1008.4 |
| 20260507210905 | 20 | 201 | 6.4 | 19.3 | 0.00 | 0.00 | 0.00 | 72 | 1008.4 |
| 20260507210804 | 20 | 202 | 6.4 | 17.7 | 0.00 | 0.00 | 0.00 | 72 | 1008.4 |
| 20260507210705 | 20 | 202 | 6.4 | 17.7 | 0.00 | 0.00 | 0.00 | 72 | 1008.4 |
| 20260507210605 | 20 | 201 | 6.4 | 17.7 | 0.00 | 0.00 | 0.00 | 72 | 1008.3 |
| 20260507210505 | 20 | 204 | 6.4 | 17.7 | 0.00 | 0.00 | 0.00 | 72 | 1008.3 |
| 20260507210406 | 20 | 205 | 6.4 | 14.5 | 0.00 | 0.00 | 0.00 | 72 | 1008.3 |
| 20260507210306 | 20 | 204 | 6.4 | 14.5 | 0.00 | 0.00 | 0.00 | 72 | 1008.3 |
| 20260507210204 | 20 | 203 | 6.4 | 14.5 | 0.00 | 0.00 | 0.00 | 72 | 1008.3 |
| 20260507210106 | 20 | 203 | 6.4 | 14.5 | 0.00 | 0.00 | 0.00 | 72 | 1008.3 |
| 20260507210005 | 20 | 205 | 6.4 | 14.5 | 0.00 | 0.00 | 0.00 | 72 | 1008.3 |
| 20260507205905 | 20 | 205 | 6.4 | 14.5 | 0.00 | 0.00 | 0.00 | 72 | 1008.3 |
| 20260507205804 | 20 | 204 | 6.4 | 14.5 | 0.00 | 0.00 | 0.00 | 72 | 1008.2 |
| 20260507205704 | 20 | 202 | 6.4 | 16.1 | 0.00 | 0.00 | 0.00 | 72 | 1008.2 |
| 20260507205604 | 20 | 202 | 6.4 | 16.1 | 0.00 | 0.00 | 0.00 | 72 | 1008.2 |
| 20260507205505 | 20 | 203 | 6.4 | 16.1 | 0.00 | 0.00 | 0.00 | 72 | 1008.0 |
| 20260507205405 | 20 | 204 | 6.4 | 16.1 | 0.00 | 0.00 | 0.00 | 72 | 1008.0 |
| 20260507205306 | 20 | 204 | 6.4 | 16.1 | 0.00 | 0.00 | 0.00 | 72 | 1008.0 |
| 20260507205205 | 20 | 205 | 6.4 | 16.1 | 0.00 | 0.00 | 0.00 | 72 | 1007.9 |
| 20260507205105 | 20 | 207 | 6.4 | 16.1 | 0.00 | 0.00 | 0.00 | 72 | 1007.9 |
| 20260507205005 | 20 | 207 | 6.4 | 16.1 | 0.00 | 0.00 | 0.00 | 72 | 1007.8 |
| 20260507204906 | 20 | 208 | 6.4 | 16.1 | 0.00 | 0.00 | 0.00 | 72 | 1007.8 |
| 20260507204805 | 20 | 209 | 6.4 | 16.1 | 0.00 | 0.00 | 0.00 | 71 | 1007.8 |
| 20260507204706 | 20 | 211 | 6.4 | 14.5 | 0.00 | 0.00 | 0.00 | 71 | 1007.7 |
| 20260507204608 | 20 | 209 | 6.4 | 14.5 | 0.00 | 0.00 | 0.00 | 71 | 1007.7 |
| 20260507204505 | 20 | 211 | 6.4 | 16.1 | 0.00 | 0.00 | 0.00 | 71 | 1007.7 |
| 20260507204405 | 20 | 211 | 4.8 | 16.1 | 0.00 | 0.00 | 0.00 | 71 | 1007.7 |
| 20260507204305 | 20 | 211 | 4.8 | 16.1 | 0.00 | 0.00 | 0.00 | 71 | 1007.7 |
| 20260507204205 | 20 | 210 | 4.8 | 16.1 | 0.00 | 0.00 | 0.00 | 71 | 1007.6 |
| 20260507204105 | 20 | 208 | 4.8 | 16.1 | 0.00 | 0.00 | 0.00 | 71 | 1007.6 |
| 20260507204005 | 20 | 208 | 4.8 | 16.1 | 0.00 | 0.00 | 0.00 | 71 | 1007.6 |
| 20260507203905 | 20 | 207 | 4.8 | 16.1 | 0.00 | 0.00 | 0.00 | 71 | 1007.7 |
| 20260507203805 | 20 | 205 | 4.8 | 16.1 | 0.00 | 0.00 | 0.00 | 71 | 1007.7 |
| 20260507203704 | 20 | 203 | 4.8 | 16.1 | 0.00 | 0.00 | 0.00 | 71 | 1007.7 |
| 20260507203604 | 20 | 204 | 4.8 | 16.1 | 0.00 | 0.00 | 0.00 | 71 | 1007.7 |
| 20260507203505 | 20 | 201 | 4.8 | 14.5 | 0.00 | 0.00 | 0.00 | 71 | 1007.8 |
| 20260507203405 | 20 | 201 | 4.8 | 14.5 | 0.00 | 0.00 | 0.00 | 71 | 1007.8 |
| 20260507203310 | 20 | 200 | 4.8 | 14.5 | 0.00 | 0.00 | 0.00 | 70 | 1007.8 |
| 20260507203207 | 20 | 199 | 4.8 | 14.5 | 0.00 | 0.00 | 0.00 | 70 | 1007.8 |
| 20260507203105 | 20 | 200 | 4.8 | 14.5 | 0.00 | 0.00 | 0.00 | 70 | 1007.8 |
| 20260507203005 | 20 | 197 | 4.8 | 12.9 | 0.00 | 0.00 | 0.00 | 70 | 1007.8 |
| 20260507202904 | 20 | 197 | 4.8 | 12.9 | 0.00 | 0.00 | 0.00 | 70 | 1007.8 |
| 20260507202805 | 20 | 198 | 4.8 | 12.9 | 0.00 | 0.00 | 0.00 | 70 | 1007.8 |
| 20260507202704 | 20 | 201 | 4.8 | 12.9 | 0.00 | 0.00 | 0.00 | 70 | 1007.8 |
| 20260507202604 | 20 | 201 | 4.8 | 12.9 | 0.00 | 0.00 | 0.00 | 70 | 1007.8 |
| 20260507202504 | 20 | 200 | 4.8 | 11.3 | 0.00 | 0.00 | 0.00 | 70 | 1007.8 |
| 20260507202405 | 20 | 201 | 4.8 | 11.3 | 0.00 | 0.00 | 0.00 | 70 | 1007.8 |
| 20260507202306 | 20 | 204 | 4.8 | 11.3 | 0.00 | 0.00 | 0.00 | 70 | 1007.8 |
| 20260507202205 | 20 | 206 | 4.8 | 11.3 | 0.00 | 0.00 | 0.00 | 70 | 1007.8 |
| 20260507202104 | 20 | 205 | 4.8 | 12.9 | 0.00 | 0.00 | 0.00 | 70 | 1007.8 |
| 20260507202005 | 20 | 206 | 4.8 | 12.9 | 0.00 | 0.00 | 0.00 | 70 | 1007.8 |
| 20260507201905 | 20 | 207 | 4.8 | 12.9 | 0.00 | 0.00 | 0.00 | 70 | 1007.8 |
| 20260507201806 | 20 | 208 | 4.8 | 12.9 | 0.00 | 0.00 | 0.00 | 70 | 1007.8 |
| 20260507201705 | 20 | 207 | 4.8 | 12.9 | 0.00 | 0.00 | 0.00 | 70 | 1007.8 |
| 20260507201606 | 20 | 205 | 4.8 | 12.9 | 0.00 | 0.00 | 0.00 | 70 | 1007.7 |
| 20260507201504 | 20 | 207 | 4.8 | 12.9 | 0.00 | 0.00 | 0.00 | 70 | 1007.7 |
| 20260507201404 | 20 | 206 | 4.8 | 12.9 | 0.00 | 0.00 | 0.00 | 70 | 1007.8 |
| 20260507201304 | 20 | 206 | 4.8 | 12.9 | 0.00 | 0.00 | 0.00 | 70 | 1007.7 |
| 20260507201204 | 20 | 203 | 4.8 | 12.9 | 0.00 | 0.00 | 0.00 | 70 | 1007.7 |
| 20260507201104 | 20 | 205 | 6.4 | 12.9 | 0.00 | 0.00 | 0.00 | 70 | 1007.9 |
| 20260507201004 | 20 | 205 | 6.4 | 12.9 | 0.00 | 0.00 | 0.00 | 70 | 1007.9 |
| 20260507200904 | 20 | 205 | 6.4 | 12.9 | 0.00 | 0.00 | 0.00 | 70 | 1007.9 |
| 20260507200804 | 20 | 207 | 6.4 | 12.9 | 0.00 | 0.00 | 0.00 | 69 | 1008.1 |
| 20260507200704 | 20 | 207 | 6.4 | 17.7 | 0.00 | 0.00 | 0.00 | 69 | 1008.1 |
| 20260507200604 | 20 | 213 | 8.0 | 17.7 | 0.00 | 0.00 | 0.00 | 69 | 1008.1 |
| 20260507200505 | 20 | 212 | 8.0 | 17.7 | 0.00 | 0.00 | 0.00 | 69 | 1008.1 |
| 20260507200405 | 20 | 213 | 8.0 | 17.7 | 0.00 | 0.00 | 0.00 | 69 | 1008.1 |
| 20260507200304 | 20 | 209 | 8.0 | 17.7 | 0.00 | 0.00 | 0.00 | 69 | 1008.0 |
| 20260507200206 | 20 | 212 | 8.0 | 17.7 | 0.00 | 0.00 | 0.00 | 69 | 1008.0 |
| 20260507200105 | 20 | 209 | 8.0 | 17.7 | 0.00 | 0.00 | 0.00 | 69 | 1007.9 |
| 20260507200005 | 20 | 206 | 8.0 | 17.7 | 0.00 | 0.00 | 0.00 | 69 | 1007.9 |
| 20260507195904 | 20 | 205 | 8.0 | 17.7 | 0.00 | 0.00 | 0.00 | 69 | 1007.9 |
| 20260507195804 | 20 | 203 | 8.0 | 17.7 | 0.00 | 0.00 | 0.00 | 69 | 1007.9 |
| 20260507195704 | 20 | 204 | 8.0 | 17.7 | 0.00 | 0.00 | 0.00 | 69 | 1007.9 |
| 20260507195604 | 20 | 201 | 8.0 | 17.7 | 0.00 | 0.00 | 0.00 | 69 | 1007.8 |
| 20260507195505 | 20 | 201 | 8.0 | 17.7 | 0.00 | 0.00 | 0.00 | 69 | 1007.8 |
| 20260507195404 | 20 | 200 | 8.0 | 17.7 | 0.00 | 0.00 | 0.00 | 69 | 1007.8 |
| 20260507195306 | 20 | 201 | 8.0 | 16.1 | 0.00 | 0.00 | 0.00 | 69 | 1007.7 |
| 20260507195205 | 20 | 201 | 6.4 | 16.1 | 0.00 | 0.00 | 0.00 | 69 | 1007.7 |
| 20260507195107 | 20 | 201 | 6.4 | 16.1 | 0.00 | 0.00 | 0.00 | 69 | 1007.7 |
| 20260507195006 | 20 | 205 | 6.4 | 17.7 | 0.00 | 0.00 | 0.00 | 69 | 1007.6 |
| 20260507194904 | 20 | 204 | 6.4 | 17.7 | 0.00 | 0.00 | 0.00 | 69 | 1007.6 |
| 20260507194804 | 20 | 204 | 6.4 | 17.7 | 0.00 | 0.00 | 0.00 | 69 | 1007.5 |
| 20260507194707 | 20 | 202 | 6.4 | 17.7 | 0.00 | 0.00 | 0.00 | 69 | 1007.5 |
| 20260507194606 | 20 | 201 | 6.4 | 17.7 | 0.00 | 0.00 | 0.00 | 69 | 1007.5 |
| 20260507194504 | 20 | 200 | 6.4 | 17.7 | 0.00 | 0.00 | 0.00 | 68 | 1007.5 |
| 20260507194404 | 20 | 199 | 6.4 | 17.7 | 0.00 | 0.00 | 0.00 | 68 | 1007.5 |
| 20260507194304 | 20 | 199 | 4.8 | 17.7 | 0.00 | 0.00 | 0.00 | 68 | 1007.5 |
| 20260507194205 | 20 | 199 | 4.8 | 17.7 | 0.00 | 0.00 | 0.00 | 68 | 1007.5 |
| 20260507194104 | 20 | 198 | 4.8 | 17.7 | 0.00 | 0.00 | 0.00 | 68 | 1007.5 |
| 20260507194004 | 20 | 197 | 4.8 | 17.7 | 0.00 | 0.00 | 0.00 | 68 | 1007.4 |
| 20260507193904 | 20 | 196 | 4.8 | 16.1 | 0.00 | 0.00 | 0.00 | 68 | 1007.4 |
| 20260507193804 | 20 | 197 | 4.8 | 16.1 | 0.00 | 0.00 | 0.00 | 68 | 1007.5 |
| 20260507193704 | 20 | 200 | 4.8 | 16.1 | 0.00 | 0.00 | 0.00 | 68 | 1007.4 |
| 20260507193604 | 20 | 202 | 4.8 | 16.1 | 0.00 | 0.00 | 0.00 | 68 | 1007.4 |
| 20260507193504 | 20 | 202 | 4.8 | 16.1 | 0.00 | 0.00 | 0.00 | 68 | 1007.5 |
| 20260507193405 | 20 | 203 | 4.8 | 16.1 | 0.00 | 0.00 | 0.00 | 68 | 1007.5 |
| 20260507193304 | 20 | 206 | 4.8 | 12.9 | 0.00 | 0.00 | 0.00 | 67 | 1007.5 |
| 20260507193206 | 20 | 205 | 4.8 | 12.9 | 0.00 | 0.00 | 0.00 | 67 | 1007.4 |
| 20260507193104 | 20 | 204 | 4.8 | 12.9 | 0.00 | 0.00 | 0.00 | 67 | 1007.4 |
| 20260507193005 | 20 | 205 | 4.8 | 14.5 | 0.00 | 0.00 | 0.00 | 67 | 1007.4 |
| 20260507192904 | 20 | 206 | 4.8 | 14.5 | 0.00 | 0.00 | 0.00 | 67 | 1007.4 |
| 20260507192804 | 20 | 207 | 4.8 | 14.5 | 0.00 | 0.00 | 0.00 | 67 | 1007.4 |
| 20260507192704 | 20 | 205 | 4.8 | 14.5 | 0.00 | 0.00 | 0.00 | 67 | 1007.4 |
| 20260507192604 | 20 | 201 | 4.8 | 14.5 | 0.00 | 0.00 | 0.00 | 67 | 1007.4 |
| 20260507192505 | 20 | 199 | 4.8 | 14.5 | 0.00 | 0.00 | 0.00 | 67 | 1007.3 |
| 20260507192404 | 20 | 198 | 4.8 | 14.5 | 0.00 | 0.00 | 0.00 | 67 | 1007.3 |
| 20260507192306 | 20 | 197 | 4.8 | 14.5 | 0.00 | 0.00 | 0.00 | 67 | 1007.3 |
| 20260507192204 | 20 | 197 | 4.8 | 14.5 | 0.00 | 0.00 | 0.00 | 67 | 1007.3 |
| 20260507192104 | 20 | 200 | 4.8 | 14.5 | 0.00 | 0.00 | 0.00 | 67 | 1007.3 |
| 20260507192004 | 20 | 196 | 4.8 | 11.3 | 0.00 | 0.00 | 0.00 | 67 | 1007.3 |
| 20260507191904 | 20 | 196 | 4.8 | 11.3 | 0.00 | 0.00 | 0.00 | 67 | 1007.3 |
| 20260507191804 | 20 | 196 | 4.8 | 11.3 | 0.00 | 0.00 | 0.00 | 67 | 1007.3 |
| 20260507191704 | 20 | 197 | 4.8 | 11.3 | 0.00 | 0.00 | 0.00 | 67 | 1007.3 |
| 20260507191604 | 20 | 199 | 4.8 | 11.3 | 0.00 | 0.00 | 0.00 | 67 | 1007.3 |
| 20260507191504 | 20 | 201 | 4.8 | 11.3 | 0.00 | 0.00 | 0.00 | 67 | 1007.3 |
| 20260507191404 | 20 | 202 | 4.8 | 11.3 | 0.00 | 0.00 | 0.00 | 67 | 1007.4 |
| 20260507191304 | 20 | 201 | 4.8 | 11.3 | 0.00 | 0.00 | 0.00 | 67 | 1007.4 |
| 20260507191205 | 20 | 201 | 4.8 | 11.3 | 0.00 | 0.00 | 0.00 | 66 | 1007.4 |
| 20260507191104 | 20 | 200 | 4.8 | 11.3 | 0.00 | 0.00 | 0.00 | 66 | 1007.4 |
| 20260507191004 | 20 | 202 | 4.8 | 11.3 | 0.00 | 0.00 | 0.00 | 66 | 1007.4 |
| 20260507190904 | 20 | 202 | 4.8 | 11.3 | 0.00 | 0.00 | 0.00 | 66 | 1007.3 |
| 20260507190804 | 20 | 204 | 4.8 | 11.3 | 0.00 | 0.00 | 0.00 | 66 | 1007.3 |
| 20260507190704 | 20 | 203 | 6.4 | 11.3 | 0.00 | 0.00 | 0.00 | 66 | 1007.3 |
| 20260507190604 | 20 | 203 | 6.4 | 11.3 | 0.00 | 0.00 | 0.00 | 66 | 1007.3 |
| 20260507190508 | 20 | 204 | 6.4 | 11.3 | 0.00 | 0.00 | 0.00 | 66 | 1007.3 |
| 20260507190404 | 20 | 198 | 6.4 | 16.1 | 0.00 | 0.00 | 0.00 | 66 | 1007.3 |
| 20260507190305 | 20 | 197 | 6.4 | 16.1 | 0.00 | 0.00 | 0.00 | 66 | 1007.3 |
| 20260507190203 | 20 | 201 | 8.0 | 16.1 | 0.00 | 0.00 | 0.00 | 66 | 1007.3 |
| 20260507190104 | 20 | 200 | 8.0 | 16.1 | 0.00 | 0.00 | 0.00 | 66 | 1007.2 |
| 20260507190005 | 20 | 200 | 8.0 | 16.1 | 0.00 | 0.00 | 0.00 | 66 | 1007.2 |
| 20260507185904 | 20 | 201 | 8.0 | 16.1 | 0.00 | 0.00 | 0.00 | 66 | 1007.2 |
| 20260507185804 | 20 | 203 | 8.0 | 16.1 | 0.00 | 0.00 | 0.00 | 66 | 1007.2 |
| 20260507185704 | 20 | 202 | 8.0 | 16.1 | 0.00 | 0.00 | 0.00 | 66 | 1007.2 |
| 20260507185604 | 20 | 205 | 8.0 | 16.1 | 0.00 | 0.00 | 0.00 | 66 | 1007.1 |
| 20260507185505 | 20 | 204 | 8.0 | 16.1 | 0.00 | 0.00 | 0.00 | 65 | 1007.1 |
| 20260507185404 | 20 | 207 | 8.0 | 16.1 | 0.00 | 0.00 | 0.00 | 65 | 1007.1 |
| 20260507185305 | 20 | 208 | 9.7 | 16.1 | 0.00 | 0.00 | 0.00 | 65 | 1007.0 |
| 20260507185204 | 20 | 204 | 9.7 | 17.7 | 0.00 | 0.00 | 0.00 | 65 | 1007.0 |
| 20260507185104 | 20 | 204 | 9.7 | 17.7 | 0.00 | 0.00 | 0.00 | 65 | 1007.0 |
| 20260507185006 | 20 | 202 | 9.7 | 17.7 | 0.00 | 0.00 | 0.00 | 65 | 1007.0 |
| 20260507184904 | 20 | 202 | 9.7 | 17.7 | 0.00 | 0.00 | 0.00 | 65 | 1007.0 |
| 20260507184804 | 20 | 200 | 9.7 | 17.7 | 0.00 | 0.00 | 0.00 | 65 | 1007.0 |
| 20260507184706 | 20 | 202 | 9.7 | 17.7 | 0.00 | 0.00 | 0.00 | 65 | 1007.0 |
| 20260507184604 | 20 | 200 | 9.7 | 22.5 | 0.00 | 0.00 | 0.00 | 66 | 1007.0 |
| 20260507184504 | 20 | 200 | 9.7 | 22.5 | 0.00 | 0.00 | 0.00 | 66 | 1007.0 |
| 20260507184404 | 20 | 202 | 9.7 | 22.5 | 0.00 | 0.00 | 0.00 | 66 | 1007.0 |
| 20260507184304 | 20 | 202 | 9.7 | 22.5 | 0.00 | 0.00 | 0.00 | 66 | 1007.0 |
| 20260507184203 | 20 | 202 | 9.7 | 22.5 | 0.00 | 0.00 | 0.00 | 65 | 1007.0 |
| 20260507184104 | 20 | 203 | 9.7 | 22.5 | 0.00 | 0.00 | 0.00 | 65 | 1006.9 |
| 20260507184004 | 20 | 204 | 9.7 | 22.5 | 0.00 | 0.00 | 0.00 | 65 | 1006.9 |
| 20260507183904 | 20 | 204 | 9.7 | 22.5 | 0.00 | 0.00 | 0.00 | 65 | 1006.8 |
| 20260507183804 | 20 | 207 | 9.7 | 22.5 | 0.00 | 0.00 | 0.00 | 65 | 1006.8 |
| 20260507183705 | 20 | 206 | 9.7 | 22.5 | 0.00 | 0.00 | 0.00 | 65 | 1006.8 |
| 20260507183605 | 20 | 205 | 9.7 | 22.5 | 0.00 | 0.00 | 0.00 | 66 | 1006.7 |
| 20260507183505 | 20 | 204 | 9.7 | 22.5 | 0.00 | 0.00 | 0.00 | 66 | 1006.8 |
| 20260507183405 | 20 | 202 | 9.7 | 22.5 | 0.00 | 0.00 | 0.00 | 66 | 1006.8 |
| 20260507183305 | 20 | 203 | 9.7 | 22.5 | 0.00 | 0.00 | 0.00 | 66 | 1006.7 |
| 20260507183205 | 20 | 203 | 9.7 | 22.5 | 0.00 | 0.00 | 0.00 | 66 | 1006.7 |
| 20260507183105 | 20 | 204 | 9.7 | 22.5 | 0.00 | 0.00 | 0.00 | 66 | 1006.7 |
| 20260507183006 | 20 | 204 | 9.7 | 22.5 | 0.00 | 0.00 | 0.00 | 65 | 1006.7 |
| 20260507182905 | 20 | 202 | 9.7 | 22.5 | 0.00 | 0.00 | 0.00 | 65 | 1006.7 |
| 20260507182805 | 20 | 200 | 9.7 | 20.9 | 0.00 | 0.00 | 0.00 | 65 | 1006.7 |
| 20260507182705 | 20 | 200 | 9.7 | 30.6 | 0.00 | 0.00 | 0.00 | 65 | 1006.7 |
| 20260507182605 | 20 | 200 | 9.7 | 30.6 | 0.00 | 0.00 | 0.00 | 65 | 1006.7 |
| 20260507182505 | 20 | 200 | 9.7 | 30.6 | 0.00 | 0.00 | 0.00 | 65 | 1006.7 |
| 20260507182404 | 20 | 199 | 9.7 | 30.6 | 0.00 | 0.00 | 0.00 | 65 | 1006.7 |
| 20260507182307 | 20 | 198 | 9.7 | 30.6 | 0.00 | 0.00 | 0.00 | 65 | 1006.7 |
| 20260507182205 | 20 | 198 | 9.7 | 30.6 | 0.00 | 0.00 | 0.00 | 65 | 1006.7 |
| 20260507182105 | 20 | 194 | 9.7 | 30.6 | 0.00 | 0.00 | 0.00 | 65 | 1006.7 |
| 20260507182005 | 20 | 194 | 9.7 | 30.6 | 0.00 | 0.00 | 0.00 | 65 | 1006.7 |
| 20260507181908 | 20 | 195 | 9.7 | 30.6 | 0.00 | 0.00 | 0.00 | 65 | 1006.7 |
| 20260507181804 | 20 | 195 | 9.7 | 30.6 | 0.00 | 0.00 | 0.00 | 65 | 1006.7 |
| 20260507181706 | 20 | 194 | 9.7 | 25.7 | 0.00 | 0.00 | 0.00 | 65 | 1006.7 |
| 20260507181606 | 20 | 195 | 9.7 | 25.7 | 0.00 | 0.00 | 0.00 | 65 | 1006.7 |
| 20260507181506 | 20 | 195 | 9.7 | 25.7 | 0.00 | 0.00 | 0.00 | 64 | 1006.8 |
| 20260507181405 | 20 | 197 | 9.7 | 25.7 | 0.00 | 0.00 | 0.00 | 65 | 1006.8 |
| 20260507181305 | 20 | 196 | 9.7 | 19.3 | 0.00 | 0.00 | 0.00 | 65 | 1006.8 |
| 20260507181205 | 20 | 198 | 9.7 | 25.7 | 0.00 | 0.00 | 0.00 | 65 | 1006.8 |
| 20260507181105 | 20 | 200 | 9.7 | 25.7 | 0.00 | 0.00 | 0.00 | 65 | 1006.8 |
| 20260507181005 | 20 | 199 | 9.7 | 25.7 | 0.00 | 0.00 | 0.00 | 65 | 1006.9 |
| 20260507180905 | 20 | 198 | 9.7 | 25.7 | 0.00 | 0.00 | 0.00 | 65 | 1006.9 |
| 20260507180805 | 20 | 198 | 9.7 | 25.7 | 0.00 | 0.00 | 0.00 | 65 | 1006.9 |
| 20260507180705 | 20 | 198 | 9.7 | 25.7 | 0.00 | 0.00 | 0.00 | 65 | 1006.9 |
| 20260507180605 | 20 | 199 | 9.7 | 25.7 | 0.00 | 0.00 | 0.00 | 65 | 1006.9 |
| 20260507180508 | 20 | 200 | 9.7 | 25.7 | 0.00 | 0.00 | 0.00 | 65 | 1006.9 |
| 20260507180405 | 20 | 197 | 9.7 | 25.7 | 0.00 | 0.00 | 0.00 | 66 | 1006.9 |
| 20260507180304 | 20 | 197 | 9.7 | 25.7 | 0.00 | 0.00 | 0.00 | 66 | 1006.7 |
| 20260507180205 | 20 | 196 | 9.7 | 24.1 | 0.00 | 0.00 | 0.00 | 66 | 1006.7 |
| 20260507180106 | 20 | 197 | 9.7 | 24.1 | 0.00 | 0.00 | 0.00 | 66 | 1006.7 |
| 20260507180005 | 20 | 198 | 9.7 | 24.1 | 0.00 | 0.00 | 0.00 | 66 | 1006.6 |
| 20260507175905 | 20 | 200 | 9.7 | 24.1 | 0.00 | 0.00 | 0.00 | 66 | 1006.6 |
| 20260507175805 | 20 | 200 | 9.7 | 24.1 | 0.00 | 0.00 | 0.00 | 66 | 1006.6 |
| 20260507175705 | 20 | 200 | 9.7 | 24.1 | 0.00 | 0.00 | 0.00 | 66 | 1006.7 |
| 20260507175605 | 20 | 198 | 9.7 | 24.1 | 0.00 | 0.00 | 0.00 | 66 | 1006.7 |
| 20260507175505 | 20 | 196 | 9.7 | 24.1 | 0.00 | 0.00 | 0.00 | 66 | 1006.8 |
| 20260507175405 | 20 | 199 | 9.7 | 24.1 | 0.00 | 0.00 | 0.00 | 66 | 1006.9 |
| 20260507175307 | 20 | 199 | 9.7 | 24.1 | 0.00 | 0.00 | 0.00 | 66 | 1006.9 |
| 20260507175206 | 20 | 197 | 9.7 | 25.7 | 0.00 | 0.00 | 0.00 | 66 | 1006.8 |
| 20260507175109 | 20 | 198 | 9.7 | 25.7 | 0.00 | 0.00 | 0.00 | 66 | 1006.8 |
| 20260507175007 | 20 | 200 | 9.7 | 25.7 | 0.00 | 0.00 | 0.00 | 66 | 1006.8 |
| 20260507174904 | 20 | 196 | 9.7 | 25.7 | 0.00 | 0.00 | 0.00 | 66 | 1006.8 |
| 20260507174808 | 20 | 196 | 9.7 | 25.7 | 0.00 | 0.00 | 0.00 | 66 | 1006.8 |
| 20260507174705 | 20 | 195 | 9.7 | 25.7 | 0.00 | 0.00 | 0.00 | 66 | 1006.9 |
| 20260507174612 | 20 | 195 | 9.7 | 25.7 | 0.00 | 0.00 | 0.00 | 66 | 1006.9 |
| 20260507174504 | 20 | 195 | 9.7 | 25.7 | 0.00 | 0.00 | 0.00 | 66 | 1006.9 |
| 20260507174405 | 20 | 195 | 11.3 | 25.7 | 0.00 | 0.00 | 0.00 | 66 | 1006.8 |
| 20260507174305 | 20 | 197 | 11.3 | 25.7 | 0.00 | 0.00 | 0.00 | 65 | 1006.8 |
| 20260507174205 | 20 | 200 | 11.3 | 22.5 | 0.00 | 0.00 | 0.00 | 65 | 1006.9 |
| 20260507174105 | 20 | 199 | 11.3 | 22.5 | 0.00 | 0.00 | 0.00 | 65 | 1007.0 |
| 20260507174006 | 20 | 198 | 11.3 | 22.5 | 0.00 | 0.00 | 0.00 | 65 | 1007.0 |
| 20260507173905 | 20 | 203 | 11.3 | 22.5 | 0.00 | 0.00 | 0.00 | 65 | 1006.8 |
| 20260507173805 | 20 | 204 | 11.3 | 22.5 | 0.00 | 0.00 | 0.00 | 65 | 1006.8 |
| 20260507173704 | 20 | 204 | 11.3 | 22.5 | 0.00 | 0.00 | 0.00 | 65 | 1006.9 |
| 20260507173604 | 20 | 206 | 11.3 | 22.5 | 0.00 | 0.00 | 0.00 | 65 | 1007.0 |
| 20260507173505 | 20 | 208 | 11.3 | 22.5 | 0.00 | 0.00 | 0.00 | 65 | 1007.0 |
| 20260507173415 | 20 | 207 | 11.3 | 22.5 | 0.00 | 0.00 | 0.00 | 65 | 1007.0 |
| 20260507173307 | 20 | 204 | 11.3 | 22.5 | 0.00 | 0.00 | 0.00 | 65 | 1007.0 |
| 20260507173205 | 20 | 203 | 11.3 | 22.5 | 0.00 | 0.00 | 0.00 | 65 | 1007.0 |
| 20260507173105 | 20 | 206 | 11.3 | 24.1 | 0.00 | 0.00 | 0.00 | 65 | 1006.9 |
| 20260507173005 | 20 | 207 | 11.3 | 24.1 | 0.00 | 0.00 | 0.00 | 65 | 1006.9 |
| 20260507172904 | 20 | 205 | 11.3 | 24.1 | 0.00 | 0.00 | 0.00 | 65 | 1006.9 |
| 20260507172806 | 20 | 204 | 11.3 | 24.1 | 0.00 | 0.00 | 0.00 | 65 | 1007.0 |
| 20260507172704 | 20 | 204 | 11.3 | 24.1 | 0.00 | 0.00 | 0.00 | 65 | 1007.0 |
| 20260507172604 | 20 | 203 | 11.3 | 24.1 | 0.00 | 0.00 | 0.00 | 65 | 1007.1 |
| 20260507172504 | 20 | 199 | 11.3 | 24.1 | 0.00 | 0.00 | 0.00 | 65 | 1007.1 |
| 20260507172307 | 20 | 203 | 11.3 | 24.1 | 0.00 | 0.00 | 0.00 | 65 | 1007.2 |
| 20260507172204 | 20 | 204 | 11.3 | 24.1 | 0.00 | 0.00 | 0.00 | 65 | 1007.2 |
| 20260507172106 | 20 | 201 | 11.3 | 20.9 | 0.00 | 0.00 | 0.00 | 65 | 1007.2 |
| 20260507172007 | 20 | 200 | 11.3 | 20.9 | 0.00 | 0.00 | 0.00 | 65 | 1007.2 |
| 20260507171905 | 20 | 198 | 11.3 | 20.9 | 0.00 | 0.00 | 0.00 | 65 | 1007.1 |
| 20260507171804 | 20 | 198 | 11.3 | 20.9 | 0.00 | 0.00 | 0.00 | 65 | 1007.0 |
| 20260507171706 | 20 | 199 | 11.3 | 20.9 | 0.00 | 0.00 | 0.00 | 65 | 1007.0 |
| 20260507171608 | 20 | 201 | 11.3 | 25.7 | 0.00 | 0.00 | 0.00 | 65 | 1007.0 |
| 20260507171504 | 21 | 204 | 11.3 | 25.7 | 0.00 | 0.00 | 0.00 | 65 | 1007.0 |
| 20260507171404 | 21 | 200 | 11.3 | 25.7 | 0.00 | 0.00 | 0.00 | 65 | 1006.9 |
| 20260507171305 | 21 | 198 | 11.3 | 25.7 | 0.00 | 0.00 | 0.00 | 65 | 1006.8 |
| 20260507171204 | 21 | 198 | 11.3 | 25.7 | 0.00 | 0.00 | 0.00 | 65 | 1006.8 |
| 20260507171104 | 21 | 197 | 11.3 | 25.7 | 0.00 | 0.00 | 0.00 | 64 | 1006.9 |
| 20260507171005 | 21 | 197 | 11.3 | 25.7 | 0.00 | 0.00 | 0.00 | 64 | 1006.8 |
| 20260507170904 | 21 | 199 | 11.3 | 25.7 | 0.00 | 0.00 | 0.00 | 64 | 1006.8 |
| 20260507170805 | 21 | 199 | 11.3 | 25.7 | 0.00 | 0.00 | 0.00 | 64 | 1006.8 |
| 20260507170704 | 21 | 199 | 11.3 | 25.7 | 0.00 | 0.00 | 0.00 | 64 | 1006.8 |
| 20260507170607 | 21 | 200 | 11.3 | 24.1 | 0.00 | 0.00 | 0.00 | 64 | 1006.9 |
| 20260507170505 | 21 | 197 | 11.3 | 27.4 | 0.00 | 0.00 | 0.00 | 64 | 1006.9 |
| 20260507170405 | 21 | 199 | 11.3 | 27.4 | 0.00 | 0.00 | 0.00 | 64 | 1006.9 |
| 20260507170306 | 21 | 201 | 11.3 | 27.4 | 0.00 | 0.00 | 0.00 | 64 | 1006.9 |
| 20260507170205 | 21 | 199 | 11.3 | 27.4 | 0.00 | 0.00 | 0.00 | 63 | 1006.9 |
| 20260507170105 | 21 | 201 | 11.3 | 27.4 | 0.00 | 0.00 | 0.00 | 63 | 1006.8 |
| 20260507170005 | 21 | 202 | 11.3 | 27.4 | 0.00 | 0.00 | 0.00 | 63 | 1006.7 |
| 20260507165905 | 21 | 200 | 11.3 | 27.4 | 0.00 | 0.00 | 0.00 | 63 | 1006.7 |
| 20260507165804 | 21 | 202 | 11.3 | 27.4 | 0.00 | 0.00 | 0.00 | 63 | 1006.7 |
| 20260507165604 | 21 | 199 | 11.3 | 27.4 | 0.00 | 0.00 | 0.00 | 63 | 1006.5 |
| 20260507165505 | 21 | 202 | 11.3 | 24.1 | 0.00 | 0.00 | 0.00 | 63 | 1006.5 |
| 20260507165404 | 21 | 202 | 11.3 | 24.1 | 0.00 | 0.00 | 0.00 | 63 | 1006.5 |
| 20260507165306 | 21 | 200 | 11.3 | 24.1 | 0.00 | 0.00 | 0.00 | 63 | 1006.4 |
| 20260507165204 | 21 | 204 | 11.3 | 24.1 | 0.00 | 0.00 | 0.00 | 63 | 1006.5 |
| 20260507165105 | 21 | 204 | 11.3 | 24.1 | 0.00 | 0.00 | 0.00 | 63 | 1006.5 |
| 20260507165005 | 21 | 202 | 11.3 | 24.1 | 0.00 | 0.00 | 0.00 | 63 | 1006.4 |
| 20260507164911 | 21 | 203 | 11.3 | 24.1 | 0.00 | 0.00 | 0.00 | 62 | 1006.4 |
| 20260507164805 | 21 | 202 | 11.3 | 24.1 | 0.00 | 0.00 | 0.00 | 62 | 1006.4 |
| 20260507164705 | 21 | 203 | 11.3 | 24.1 | 0.00 | 0.00 | 0.00 | 62 | 1006.4 |
| 20260507164605 | 21 | 205 | 11.3 | 24.1 | 0.00 | 0.00 | 0.00 | 62 | 1006.4 |
| 20260507164504 | 21 | 205 | 11.3 | 24.1 | 0.00 | 0.00 | 0.00 | 62 | 1006.3 |
| 20260507164404 | 21 | 203 | 12.9 | 25.7 | 0.00 | 0.00 | 0.00 | 62 | 1006.3 |
| 20260507164304 | 21 | 206 | 12.9 | 25.7 | 0.00 | 0.00 | 0.00 | 62 | 1006.3 |
| 20260507164205 | 21 | 201 | 12.9 | 25.7 | 0.00 | 0.00 | 0.00 | 62 | 1006.3 |
| 20260507164104 | 21 | 201 | 12.9 | 25.7 | 0.00 | 0.00 | 0.00 | 62 | 1006.3 |
| 20260507164004 | 21 | 205 | 12.9 | 25.7 | 0.00 | 0.00 | 0.00 | 62 | 1006.3 |
| 20260507163904 | 21 | 207 | 14.5 | 30.6 | 0.00 | 0.00 | 0.00 | 62 | 1006.2 |
| 20260507163804 | 21 | 205 | 14.5 | 30.6 | 0.00 | 0.00 | 0.00 | 62 | 1006.2 |
| 20260507163703 | 21 | 200 | 14.5 | 30.6 | 0.00 | 0.00 | 0.00 | 61 | 1006.3 |
| 20260507163604 | 21 | 200 | 14.5 | 30.6 | 0.00 | 0.00 | 0.00 | 61 | 1006.3 |
| 20260507163504 | 21 | 201 | 14.5 | 30.6 | 0.00 | 0.00 | 0.00 | 61 | 1006.2 |
| 20260507163407 | 21 | 204 | 14.5 | 30.6 | 0.00 | 0.00 | 0.00 | 61 | 1006.3 |
| 20260507163305 | 21 | 205 | 14.5 | 30.6 | 0.00 | 0.00 | 0.00 | 61 | 1006.3 |
| 20260507163210 | 21 | 207 | 14.5 | 30.6 | 0.00 | 0.00 | 0.00 | 61 | 1006.3 |
| 20260507163106 | 21 | 207 | 14.5 | 30.6 | 0.00 | 0.00 | 0.00 | 61 | 1006.3 |
| 20260507163004 | 21 | 206 | 14.5 | 30.6 | 0.00 | 0.00 | 0.00 | 61 | 1006.2 |
| 20260507162904 | 21 | 204 | 14.5 | 29.0 | 0.00 | 0.00 | 0.00 | 61 | 1006.3 |
| 20260507162804 | 21 | 208 | 14.5 | 29.0 | 0.00 | 0.00 | 0.00 | 62 | 1006.3 |
| 20260507162704 | 21 | 208 | 14.5 | 29.0 | 0.00 | 0.00 | 0.00 | 62 | 1006.3 |
| 20260507162604 | 21 | 206 | 14.5 | 29.0 | 0.00 | 0.00 | 0.00 | 62 | 1006.3 |
| 20260507162504 | 21 | 206 | 14.5 | 29.0 | 0.00 | 0.00 | 0.00 | 62 | 1006.3 |
| 20260507162404 | 21 | 202 | 12.9 | 29.0 | 0.00 | 0.00 | 0.00 | 62 | 1006.2 |
| 20260507162307 | 21 | 200 | 12.9 | 29.0 | 0.00 | 0.00 | 0.00 | 61 | 1006.2 |
| 20260507162205 | 21 | 199 | 12.9 | 29.0 | 0.00 | 0.00 | 0.00 | 61 | 1006.2 |
| 20260507162105 | 21 | 195 | 12.9 | 29.0 | 0.00 | 0.00 | 0.00 | 61 | 1006.0 |
| 20260507162006 | 21 | 195 | 12.9 | 29.0 | 0.00 | 0.00 | 0.00 | 61 | 1006.0 |
| 20260507161905 | 21 | 196 | 14.5 | 29.0 | 0.00 | 0.00 | 0.00 | 61 | 1006.2 |
| 20260507161805 | 21 | 196 | 14.5 | 29.0 | 0.00 | 0.00 | 0.00 | 61 | 1006.2 |
| 20260507161704 | 21 | 197 | 14.5 | 29.0 | 0.00 | 0.00 | 0.00 | 61 | 1006.2 |
| 20260507161605 | 21 | 197 | 14.5 | 29.0 | 0.00 | 0.00 | 0.00 | 61 | 1006.1 |
| 20260507161504 | 21 | 195 | 14.5 | 29.0 | 0.00 | 0.00 | 0.00 | 61 | 1006.1 |
| 20260507161404 | 21 | 197 | 14.5 | 29.0 | 0.00 | 0.00 | 0.00 | 61 | 1006.2 |
| 20260507161304 | 21 | 197 | 14.5 | 32.2 | 0.00 | 0.00 | 0.00 | 61 | 1006.2 |
| 20260507161204 | 21 | 194 | 14.5 | 32.2 | 0.00 | 0.00 | 0.00 | 61 | 1006.1 |
| 20260507161104 | 21 | 197 | 14.5 | 32.2 | 0.00 | 0.00 | 0.00 | 61 | 1006.2 |
| 20260507161004 | 21 | 194 | 14.5 | 32.2 | 0.00 | 0.00 | 0.00 | 61 | 1006.2 |
| 20260507160904 | 21 | 192 | 12.9 | 32.2 | 0.00 | 0.00 | 0.00 | 61 | 1006.2 |
| 20260507160804 | 21 | 191 | 12.9 | 32.2 | 0.00 | 0.00 | 0.00 | 60 | 1006.2 |
| 20260507160705 | 21 | 189 | 12.9 | 32.2 | 0.00 | 0.00 | 0.00 | 60 | 1006.2 |
| 20260507160605 | 21 | 190 | 12.9 | 32.2 | 0.00 | 0.00 | 0.00 | 60 | 1006.3 |
| 20260507160506 | 21 | 190 | 12.9 | 32.2 | 0.00 | 0.00 | 0.00 | 60 | 1006.3 |
| 20260507160408 | 21 | 192 | 12.9 | 32.2 | 0.00 | 0.00 | 0.00 | 60 | 1006.3 |
| 20260507160306 | 21 | 191 | 12.9 | 32.2 | 0.00 | 0.00 | 0.00 | 60 | 1006.4 |
| 20260507160205 | 22 | 194 | 14.5 | 32.2 | 0.00 | 0.00 | 0.00 | 59 | 1006.4 |
| 20260507160105 | 22 | 196 | 14.5 | 32.2 | 0.00 | 0.00 | 0.00 | 59 | 1006.4 |
| 20260507160005 | 22 | 197 | 12.9 | 32.2 | 0.00 | 0.00 | 0.00 | 59 | 1006.4 |
| 20260507155904 | 22 | 198 | 12.9 | 32.2 | 0.00 | 0.00 | 0.00 | 59 | 1006.3 |
| 20260507155804 | 22 | 201 | 12.9 | 32.2 | 0.00 | 0.00 | 0.00 | 59 | 1006.3 |
| 20260507155714 | 22 | 201 | 12.9 | 32.2 | 0.00 | 0.00 | 0.00 | 59 | 1006.3 |
| 20260507155605 | 22 | 202 | 12.9 | 32.2 | 0.00 | 0.00 | 0.00 | 59 | 1006.3 |
| 20260507155506 | 22 | 199 | 12.9 | 32.2 | 0.00 | 0.00 | 0.00 | 59 | 1006.3 |
| 20260507155405 | 22 | 199 | 12.9 | 32.2 | 0.00 | 0.00 | 0.00 | 59 | 1006.3 |
| 20260507155306 | 22 | 197 | 12.9 | 25.7 | 0.00 | 0.00 | 0.00 | 59 | 1006.3 |
| 20260507155205 | 22 | 197 | 12.9 | 25.7 | 0.00 | 0.00 | 0.00 | 59 | 1006.3 |
| 20260507155105 | 22 | 195 | 12.9 | 25.7 | 0.00 | 0.00 | 0.00 | 58 | 1006.2 |
| 20260507155007 | 22 | 196 | 14.5 | 25.7 | 0.00 | 0.00 | 0.00 | 58 | 1006.2 |
| 20260507154905 | 22 | 195 | 14.5 | 27.4 | 0.00 | 0.00 | 0.00 | 58 | 1006.2 |
| 20260507154806 | 22 | 195 | 14.5 | 29.0 | 0.00 | 0.00 | 0.00 | 58 | 1006.3 |
| 20260507154707 | 22 | 195 | 14.5 | 29.0 | 0.00 | 0.00 | 0.00 | 58 | 1006.3 |
| 20260507154606 | 22 | 193 | 14.5 | 29.0 | 0.00 | 0.00 | 0.00 | 59 | 1006.3 |
| 20260507154505 | 22 | 194 | 14.5 | 32.2 | 0.00 | 0.00 | 0.00 | 59 | 1006.3 |
| 20260507154404 | 22 | 191 | 14.5 | 32.2 | 0.00 | 0.00 | 0.00 | 59 | 1006.3 |
| 20260507154304 | 22 | 193 | 14.5 | 32.2 | 0.00 | 0.00 | 0.00 | 59 | 1006.2 |
| 20260507154204 | 22 | 193 | 14.5 | 32.2 | 0.00 | 0.00 | 0.00 | 59 | 1006.2 |
| 20260507154104 | 22 | 192 | 14.5 | 32.2 | 0.00 | 0.00 | 0.00 | 58 | 1006.2 |
| 20260507154005 | 22 | 193 | 14.5 | 32.2 | 0.00 | 0.00 | 0.00 | 58 | 1006.0 |
| 20260507153904 | 22 | 194 | 14.5 | 32.2 | 0.00 | 0.00 | 0.00 | 58 | 1006.0 |
| 20260507153805 | 22 | 191 | 14.5 | 32.2 | 0.00 | 0.00 | 0.00 | 58 | 1006.0 |
| 20260507153705 | 22 | 191 | 14.5 | 32.2 | 0.00 | 0.00 | 0.00 | 58 | 1006.0 |
| 20260507153604 | 22 | 192 | 14.5 | 32.2 | 0.00 | 0.00 | 0.00 | 58 | 1006.1 |
| 20260507153505 | 22 | 194 | 16.1 | 33.8 | 0.00 | 0.00 | 0.00 | 58 | 1006.2 |
| 20260507153406 | 22 | 194 | 16.1 | 33.8 | 0.00 | 0.00 | 0.00 | 58 | 1006.2 |
| 20260507153312 | 22 | 195 | 16.1 | 33.8 | 0.00 | 0.00 | 0.00 | 58 | 1006.2 |
| 20260507153206 | 22 | 196 | 16.1 | 33.8 | 0.00 | 0.00 | 0.00 | 57 | 1006.2 |
| 20260507153106 | 22 | 195 | 16.1 | 33.8 | 0.00 | 0.00 | 0.00 | 57 | 1006.2 |
| 20260507153005 | 22 | 196 | 16.1 | 33.8 | 0.00 | 0.00 | 0.00 | 57 | 1006.2 |
| 20260507152904 | 22 | 196 | 16.1 | 33.8 | 0.00 | 0.00 | 0.00 | 57 | 1006.2 |
| 20260507152806 | 22 | 196 | 16.1 | 33.8 | 0.00 | 0.00 | 0.00 | 57 | 1006.0 |
| 20260507152704 | 22 | 197 | 16.1 | 33.8 | 0.00 | 0.00 | 0.00 | 57 | 1006.0 |
| 20260507152604 | 22 | 197 | 16.1 | 33.8 | 0.00 | 0.00 | 0.00 | 56 | 1006.0 |
| 20260507152504 | 22 | 199 | 16.1 | 33.8 | 0.00 | 0.00 | 0.00 | 56 | 1006.2 |
| 20260507152404 | 22 | 200 | 16.1 | 30.6 | 0.00 | 0.00 | 0.00 | 56 | 1006.2 |
| 20260507152306 | 22 | 201 | 16.1 | 30.6 | 0.00 | 0.00 | 0.00 | 56 | 1006.2 |
| 20260507152204 | 22 | 199 | 16.1 | 30.6 | 0.00 | 0.00 | 0.00 | 56 | 1006.2 |
| 20260507152105 | 22 | 202 | 16.1 | 30.6 | 0.00 | 0.00 | 0.00 | 56 | 1006.2 |
| 20260507152006 | 22 | 200 | 16.1 | 30.6 | 0.00 | 0.00 | 0.00 | 56 | 1006.1 |
| 20260507151905 | 22 | 201 | 16.1 | 30.6 | 0.00 | 0.00 | 0.00 | 56 | 1006.0 |
| 20260507151804 | 22 | 199 | 16.1 | 30.6 | 0.00 | 0.00 | 0.00 | 56 | 1006.0 |
| 20260507151704 | 22 | 199 | 16.1 | 30.6 | 0.00 | 0.00 | 0.00 | 56 | 1006.0 |
| 20260507151605 | 22 | 199 | 16.1 | 29.0 | 0.00 | 0.00 | 0.00 | 56 | 1006.0 |
| 20260507151505 | 22 | 198 | 14.5 | 29.0 | 0.00 | 0.00 | 0.00 | 56 | 1006.1 |
| 20260507151404 | 22 | 197 | 14.5 | 29.0 | 0.00 | 0.00 | 0.00 | 56 | 1006.2 |
| 20260507151304 | 22 | 195 | 14.5 | 30.6 | 0.00 | 0.00 | 0.00 | 55 | 1006.2 |
| 20260507151205 | 22 | 198 | 14.5 | 30.6 | 0.00 | 0.00 | 0.00 | 55 | 1006.1 |
| 20260507151105 | 22 | 197 | 14.5 | 30.6 | 0.00 | 0.00 | 0.00 | 55 | 1006.1 |
| 20260507151005 | 22 | 197 | 14.5 | 30.6 | 0.00 | 0.00 | 0.00 | 56 | 1006.2 |
| 20260507150905 | 22 | 197 | 14.5 | 30.6 | 0.00 | 0.00 | 0.00 | 55 | 1006.0 |
| 20260507150805 | 22 | 199 | 14.5 | 30.6 | 0.00 | 0.00 | 0.00 | 55 | 1006.0 |
| 20260507150705 | 22 | 198 | 14.5 | 30.6 | 0.00 | 0.00 | 0.00 | 56 | 1006.0 |
| 20260507150604 | 22 | 198 | 14.5 | 30.6 | 0.00 | 0.00 | 0.00 | 56 | 1006.0 |
| 20260507150513 | 22 | 198 | 14.5 | 30.6 | 0.00 | 0.00 | 0.00 | 56 | 1006.1 |
| 20260507150405 | 22 | 199 | 14.5 | 30.6 | 0.00 | 0.00 | 0.00 | 56 | 1006.0 |
| 20260507150304 | 22 | 202 | 14.5 | 25.7 | 0.00 | 0.00 | 0.00 | 56 | 1006.0 |
| 20260507150204 | 22 | 200 | 14.5 | 25.7 | 0.00 | 0.00 | 0.00 | 56 | 1006.1 |
| 20260507150106 | 22 | 199 | 14.5 | 27.4 | 0.00 | 0.00 | 0.00 | 56 | 1006.2 |
| 20260507150005 | 22 | 198 | 14.5 | 27.4 | 0.00 | 0.00 | 0.00 | 56 | 1006.2 |
| 20260507145904 | 22 | 199 | 14.5 | 27.4 | 0.00 | 0.00 | 0.00 | 55 | 1006.2 |
| 20260507145804 | 22 | 198 | 14.5 | 37.0 | 0.00 | 0.00 | 0.00 | 55 | 1006.2 |
| 20260507145704 | 22 | 200 | 14.5 | 37.0 | 0.00 | 0.00 | 0.00 | 55 | 1006.2 |
| 20260507145604 | 22 | 199 | 14.5 | 37.0 | 0.00 | 0.00 | 0.00 | 55 | 1006.3 |
| 20260507145504 | 22 | 199 | 14.5 | 37.0 | 0.00 | 0.00 | 0.00 | 55 | 1006.3 |
| 20260507145404 | 22 | 199 | 14.5 | 37.0 | 0.00 | 0.00 | 0.00 | 56 | 1006.3 |
| 20260507145306 | 22 | 197 | 14.5 | 37.0 | 0.00 | 0.00 | 0.00 | 55 | 1006.3 |
| 20260507145204 | 22 | 198 | 14.5 | 37.0 | 0.00 | 0.00 | 0.00 | 55 | 1006.1 |
| 20260507145104 | 22 | 196 | 14.5 | 37.0 | 0.00 | 0.00 | 0.00 | 55 | 1006.3 |
| 20260507145013 | 22 | 193 | 14.5 | 37.0 | 0.00 | 0.00 | 0.00 | 55 | 1006.3 |
| 20260507144912 | 22 | 191 | 14.5 | 37.0 | 0.00 | 0.00 | 0.00 | 55 | 1006.4 |
| 20260507144806 | 22 | 194 | 14.5 | 37.0 | 0.00 | 0.00 | 0.00 | 55 | 1006.4 |
| 20260507144706 | 22 | 194 | 14.5 | 35.4 | 0.00 | 0.00 | 0.00 | 55 | 1006.4 |
| 20260507144607 | 23 | 195 | 16.1 | 30.6 | 0.00 | 0.00 | 0.00 | 55 | 1006.3 |
| 20260507144505 | 23 | 197 | 16.1 | 30.6 | 0.00 | 0.00 | 0.00 | 54 | 1006.3 |
| 20260507144405 | 23 | 196 | 16.1 | 30.6 | 0.00 | 0.00 | 0.00 | 54 | 1006.3 |
| 20260507144304 | 23 | 195 | 16.1 | 29.0 | 0.00 | 0.00 | 0.00 | 54 | 1006.2 |
| 20260507144204 | 23 | 194 | 16.1 | 32.2 | 0.00 | 0.00 | 0.00 | 54 | 1006.2 |
| 20260507144104 | 23 | 197 | 16.1 | 32.2 | 0.00 | 0.00 | 0.00 | 54 | 1006.3 |
| 20260507144005 | 23 | 201 | 16.1 | 33.8 | 0.00 | 0.00 | 0.00 | 53 | 1006.3 |
| 20260507143904 | 23 | 202 | 16.1 | 37.0 | 0.00 | 0.00 | 0.00 | 53 | 1006.3 |
| 20260507143804 | 23 | 197 | 16.1 | 37.0 | 0.00 | 0.00 | 0.00 | 53 | 1006.3 |
| 20260507143706 | 23 | 196 | 16.1 | 37.0 | 0.00 | 0.00 | 0.00 | 53 | 1006.3 |
| 20260507143605 | 23 | 194 | 16.1 | 37.0 | 0.00 | 0.00 | 0.00 | 53 | 1006.2 |
| 20260507143509 | 23 | 191 | 16.1 | 37.0 | 0.00 | 0.00 | 0.00 | 53 | 1006.2 |
| 20260507143408 | 23 | 192 | 16.1 | 37.0 | 0.00 | 0.00 | 0.00 | 53 | 1006.2 |
| 20260507143309 | 23 | 192 | 16.1 | 37.0 | 0.00 | 0.00 | 0.00 | 53 | 1006.3 |
| 20260507143208 | 23 | 195 | 14.5 | 37.0 | 0.00 | 0.00 | 0.00 | 53 | 1006.3 |
| 20260507143115 | 23 | 195 | 14.5 | 37.0 | 0.00 | 0.00 | 0.00 | 53 | 1006.4 |
| 20260507143004 | 23 | 193 | 14.5 | 37.0 | 0.00 | 0.00 | 0.00 | 53 | 1006.3 |
| 20260507142904 | 23 | 194 | 14.5 | 32.2 | 0.00 | 0.00 | 0.00 | 53 | 1006.3 |
| 20260507142804 | 23 | 196 | 14.5 | 30.6 | 0.00 | 0.00 | 0.00 | 53 | 1006.4 |
| 20260507142704 | 23 | 197 | 14.5 | 30.6 | 0.00 | 0.00 | 0.00 | 53 | 1006.4 |
| 20260507142604 | 23 | 201 | 14.5 | 30.6 | 0.00 | 0.00 | 0.00 | 53 | 1006.4 |
| 20260507142504 | 23 | 200 | 14.5 | 30.6 | 0.00 | 0.00 | 0.00 | 53 | 1006.4 |
| 20260507142404 | 23 | 199 | 14.5 | 27.4 | 0.00 | 0.00 | 0.00 | 53 | 1006.4 |
| 20260507142306 | 23 | 201 | 14.5 | 27.4 | 0.00 | 0.00 | 0.00 | 53 | 1006.4 |
| 20260507142204 | 23 | 202 | 14.5 | 27.4 | 0.00 | 0.00 | 0.00 | 53 | 1006.4 |
| 20260507142105 | 23 | 202 | 14.5 | 27.4 | 0.00 | 0.00 | 0.00 | 53 | 1006.5 |
| 20260507142006 | 23 | 199 | 14.5 | 27.4 | 0.00 | 0.00 | 0.00 | 53 | 1006.5 |
| 20260507141906 | 23 | 198 | 14.5 | 27.4 | 0.00 | 0.00 | 0.00 | 53 | 1006.5 |
| 20260507141805 | 23 | 195 | 14.5 | 27.4 | 0.00 | 0.00 | 0.00 | 53 | 1006.6 |
| 20260507141707 | 23 | 194 | 14.5 | 24.1 | 0.00 | 0.00 | 0.00 | 52 | 1006.6 |
| 20260507141605 | 23 | 192 | 16.1 | 37.0 | 0.00 | 0.00 | 0.00 | 52 | 1006.7 |
| 20260507141505 | 23 | 194 | 16.1 | 37.0 | 0.00 | 0.00 | 0.00 | 52 | 1006.8 |
| 20260507141404 | 23 | 195 | 16.1 | 37.0 | 0.00 | 0.00 | 0.00 | 52 | 1006.8 |
| 20260507141304 | 23 | 197 | 16.1 | 37.0 | 0.00 | 0.00 | 0.00 | 52 | 1006.8 |
| 20260507141204 | 23 | 195 | 16.1 | 37.0 | 0.00 | 0.00 | 0.00 | 52 | 1006.9 |
| 20260507141104 | 23 | 196 | 16.1 | 37.0 | 0.00 | 0.00 | 0.00 | 52 | 1006.9 |
| 20260507141004 | 23 | 201 | 16.1 | 37.0 | 0.00 | 0.00 | 0.00 | 52 | 1007.1 |
| 20260507140904 | 23 | 199 | 16.1 | 37.0 | 0.00 | 0.00 | 0.00 | 52 | 1007.1 |
| 20260507140804 | 23 | 199 | 16.1 | 37.0 | 0.00 | 0.00 | 0.00 | 52 | 1007.0 |
| 20260507140703 | 23 | 200 | 16.1 | 37.0 | 0.00 | 0.00 | 0.00 | 52 | 1007.0 |
| 20260507140605 | 23 | 198 | 16.1 | 37.0 | 0.00 | 0.00 | 0.00 | 52 | 1007.0 |
| 20260507140505 | 23 | 198 | 16.1 | 37.0 | 0.00 | 0.00 | 0.00 | 52 | 1006.9 |
| 20260507140404 | 23 | 198 | 16.1 | 37.0 | 0.00 | 0.00 | 0.00 | 52 | 1006.9 |
| 20260507140304 | 23 | 196 | 16.1 | 37.0 | 0.00 | 0.00 | 0.00 | 52 | 1006.9 |
| 20260507140204 | 23 | 195 | 16.1 | 37.0 | 0.00 | 0.00 | 0.00 | 51 | 1007.0 |
| 20260507140106 | 23 | 195 | 16.1 | 37.0 | 0.00 | 0.00 | 0.00 | 51 | 1007.0 |
| 20260507140006 | 23 | 194 | 16.1 | 37.0 | 0.00 | 0.00 | 0.00 | 50 | 1006.9 |
| 20260507135904 | 23 | 195 | 16.1 | 37.0 | 0.00 | 0.00 | 0.00 | 50 | 1006.9 |
| 20260507135804 | 23 | 197 | 16.1 | 37.0 | 0.00 | 0.00 | 0.00 | 50 | 1007.2 |
| 20260507135704 | 23 | 196 | 16.1 | 37.0 | 0.00 | 0.00 | 0.00 | 50 | 1007.3 |
| 20260507135604 | 23 | 197 | 16.1 | 37.0 | 0.00 | 0.00 | 0.00 | 50 | 1007.3 |
| 20260507135505 | 23 | 195 | 16.1 | 37.0 | 0.00 | 0.00 | 0.00 | 50 | 1007.2 |
| 20260507135404 | 23 | 193 | 16.1 | 37.0 | 0.00 | 0.00 | 0.00 | 50 | 1007.3 |
| 20260507135306 | 23 | 195 | 16.1 | 37.0 | 0.00 | 0.00 | 0.00 | 50 | 1007.3 |
| 20260507135204 | 23 | 194 | 16.1 | 37.0 | 0.00 | 0.00 | 0.00 | 50 | 1007.4 |
| 20260507135104 | 23 | 191 | 16.1 | 37.0 | 0.00 | 0.00 | 0.00 | 50 | 1007.4 |
| 20260507135005 | 23 | 192 | 16.1 | 37.0 | 0.00 | 0.00 | 0.00 | 50 | 1007.4 |
| 20260507134906 | 23 | 193 | 16.1 | 37.0 | 0.00 | 0.00 | 0.00 | 50 | 1007.3 |
| 20260507134806 | 23 | 192 | 16.1 | 37.0 | 0.00 | 0.00 | 0.00 | 50 | 1007.3 |
| 20260507134705 | 23 | 193 | 16.1 | 37.0 | 0.00 | 0.00 | 0.00 | 50 | 1007.3 |
| 20260507134611 | 23 | 193 | 16.1 | 37.0 | 0.00 | 0.00 | 0.00 | 50 | 1007.3 |
| 20260507134504 | 23 | 194 | 16.1 | 37.0 | 0.00 | 0.00 | 0.00 | 50 | 1007.3 |
| 20260507134405 | 23 | 195 | 16.1 | 32.2 | 0.00 | 0.00 | 0.00 | 50 | 1007.2 |
| 20260507134305 | 23 | 194 | 16.1 | 32.2 | 0.00 | 0.00 | 0.00 | 50 | 1007.2 |
| 20260507134205 | 23 | 194 | 14.5 | 35.4 | 0.00 | 0.00 | 0.00 | 50 | 1007.4 |
| 20260507134105 | 23 | 198 | 14.5 | 35.4 | 0.00 | 0.00 | 0.00 | 50 | 1007.3 |
| 20260507134005 | 23 | 197 | 14.5 | 35.4 | 0.00 | 0.00 | 0.00 | 50 | 1007.3 |
| 20260507133905 | 23 | 199 | 14.5 | 35.4 | 0.00 | 0.00 | 0.00 | 50 | 1007.3 |
| 20260507133804 | 23 | 200 | 12.9 | 35.4 | 0.00 | 0.00 | 0.00 | 50 | 1007.3 |
| 20260507133705 | 23 | 199 | 12.9 | 35.4 | 0.00 | 0.00 | 0.00 | 50 | 1007.4 |
| 20260507133605 | 23 | 200 | 12.9 | 35.4 | 0.00 | 0.00 | 0.00 | 50 | 1007.4 |
| 20260507133505 | 23 | 201 | 12.9 | 35.4 | 0.00 | 0.00 | 0.00 | 50 | 1007.4 |
| 20260507133405 | 23 | 202 | 11.3 | 35.4 | 0.00 | 0.00 | 0.00 | 50 | 1007.5 |
| 20260507133304 | 23 | 202 | 11.3 | 35.4 | 0.00 | 0.00 | 0.00 | 50 | 1007.5 |
| 20260507133206 | 23 | 203 | 11.3 | 32.2 | 0.00 | 0.00 | 0.00 | 51 | 1007.6 |
| 20260507133106 | 23 | 202 | 11.3 | 32.2 | 0.00 | 0.00 | 0.00 | 50 | 1007.5 |
| 20260507133011 | 23 | 199 | 11.3 | 30.6 | 0.00 | 0.00 | 0.00 | 50 | 1007.5 |
| 20260507132904 | 24 | 195 | 12.9 | 30.6 | 0.00 | 0.00 | 0.00 | 49 | 1007.6 |
| 20260507132805 | 24 | 195 | 12.9 | 30.6 | 0.00 | 0.00 | 0.00 | 49 | 1007.6 |
| 20260507132704 | 24 | 194 | 12.9 | 30.6 | 0.00 | 0.00 | 0.00 | 49 | 1007.6 |
| 20260507132605 | 24 | 195 | 12.9 | 30.6 | 0.00 | 0.00 | 0.00 | 49 | 1007.7 |
| 20260507132506 | 24 | 195 | 12.9 | 30.6 | 0.00 | 0.00 | 0.00 | 48 | 1007.7 |
| 20260507132404 | 24 | 194 | 14.5 | 29.0 | 0.00 | 0.00 | 0.00 | 48 | 1007.6 |
| 20260507132307 | 24 | 192 | 14.5 | 32.2 | 0.00 | 0.00 | 0.00 | 48 | 1007.6 |
| 20260507132204 | 24 | 191 | 14.5 | 32.2 | 0.00 | 0.00 | 0.00 | 48 | 1007.6 |
| 20260507132108 | 24 | 192 | 14.5 | 33.8 | 0.00 | 0.00 | 0.00 | 48 | 1007.6 |
| 20260507132008 | 24 | 195 | 14.5 | 33.8 | 0.00 | 0.00 | 0.00 | 48 | 1007.6 |
| 20260507131906 | 24 | 193 | 14.5 | 33.8 | 0.00 | 0.00 | 0.00 | 48 | 1007.6 |
| 20260507131806 | 24 | 193 | 16.1 | 33.8 | 0.00 | 0.00 | 0.00 | 48 | 1007.6 |
| 20260507131706 | 24 | 194 | 16.1 | 33.8 | 0.00 | 0.00 | 0.00 | 48 | 1007.6 |
| 20260507131614 | 24 | 194 | 16.1 | 33.8 | 0.00 | 0.00 | 0.00 | 48 | 1007.6 |
| 20260507131505 | 24 | 192 | 16.1 | 33.8 | 0.00 | 0.00 | 0.00 | 48 | 1007.6 |
| 20260507131405 | 24 | 196 | 16.1 | 33.8 | 0.00 | 0.00 | 0.00 | 47 | 1007.5 |
| 20260507131304 | 24 | 196 | 16.1 | 33.8 | 0.00 | 0.00 | 0.00 | 47 | 1007.6 |
| 20260507131205 | 24 | 195 | 16.1 | 33.8 | 0.00 | 0.00 | 0.00 | 46 | 1007.6 |
| 20260507131104 | 24 | 196 | 16.1 | 32.2 | 0.00 | 0.00 | 0.00 | 46 | 1007.5 |
| 20260507131005 | 24 | 195 | 16.1 | 37.0 | 0.00 | 0.00 | 0.00 | 46 | 1007.5 |
| 20260507130905 | 24 | 196 | 14.5 | 37.0 | 0.00 | 0.00 | 0.00 | 46 | 1007.4 |
| 20260507130804 | 24 | 196 | 14.5 | 37.0 | 0.00 | 0.00 | 0.00 | 46 | 1007.4 |
| 20260507130704 | 24 | 196 | 14.5 | 37.0 | 0.00 | 0.00 | 0.00 | 46 | 1007.4 |
| 20260507130604 | 24 | 195 | 14.5 | 37.0 | 0.00 | 0.00 | 0.00 | 46 | 1007.5 |
| 20260507130505 | 24 | 193 | 14.5 | 37.0 | 0.00 | 0.00 | 0.00 | 46 | 1007.5 |
| 20260507130405 | 24 | 191 | 12.9 | 37.0 | 0.00 | 0.00 | 0.00 | 45 | 1007.5 |
| 20260507130305 | 24 | 190 | 12.9 | 37.0 | 0.00 | 0.00 | 0.00 | 45 | 1007.5 |
| 20260507130206 | 24 | 192 | 12.9 | 37.0 | 0.00 | 0.00 | 0.00 | 45 | 1007.5 |
| 20260507130106 | 25 | 191 | 12.9 | 37.0 | 0.00 | 0.00 | 0.00 | 46 | 1007.6 |
| 20260507130005 | 25 | 192 | 12.9 | 30.6 | 0.00 | 0.00 | 0.00 | 46 | 1007.6 |
| 20260507125905 | 25 | 193 | 12.9 | 32.2 | 0.00 | 0.00 | 0.00 | 46 | 1007.6 |
| 20260507125804 | 25 | 192 | 12.9 | 32.2 | 0.00 | 0.00 | 0.00 | 46 | 1007.7 |
| 20260507125704 | 25 | 191 | 12.9 | 32.2 | 0.00 | 0.00 | 0.00 | 45 | 1007.7 |
| 20260507125605 | 25 | 192 | 12.9 | 33.8 | 0.00 | 0.00 | 0.00 | 45 | 1007.6 |
| 20260507125505 | 25 | 193 | 12.9 | 33.8 | 0.00 | 0.00 | 0.00 | 45 | 1007.8 |
| 20260507125405 | 25 | 193 | 12.9 | 33.8 | 0.00 | 0.00 | 0.00 | 45 | 1007.8 |
| 20260507125306 | 25 | 194 | 12.9 | 33.8 | 0.00 | 0.00 | 0.00 | 44 | 1007.7 |
| 20260507125205 | 25 | 195 | 12.9 | 33.8 | 0.00 | 0.00 | 0.00 | 44 | 1007.6 |
| 20260507125105 | 25 | 196 | 12.9 | 33.8 | 0.00 | 0.00 | 0.00 | 44 | 1007.6 |
| 20260507124906 | 25 | 192 | 11.3 | 33.8 | 0.00 | 0.00 | 0.00 | 43 | 1007.5 |
| 20260507124806 | 25 | 195 | 11.3 | 33.8 | 0.00 | 0.00 | 0.00 | 43 | 1007.7 |
| 20260507124706 | 25 | 196 | 11.3 | 33.8 | 0.00 | 0.00 | 0.00 | 43 | 1007.7 |
| 20260507124606 | 25 | 196 | 11.3 | 29.0 | 0.00 | 0.00 | 0.00 | 43 | 1007.7 |
| 20260507124505 | 25 | 195 | 11.3 | 29.0 | 0.00 | 0.00 | 0.00 | 43 | 1007.6 |
| 20260507124405 | 25 | 196 | 9.7 | 29.0 | 0.00 | 0.00 | 0.00 | 43 | 1007.6 |
| 20260507124304 | 25 | 194 | 9.7 | 29.0 | 0.00 | 0.00 | 0.00 | 43 | 1007.7 |
| 20260507124205 | 25 | 193 | 9.7 | 25.7 | 0.00 | 0.00 | 0.00 | 43 | 1007.7 |
| 20260507124104 | 25 | 192 | 9.7 | 24.1 | 0.00 | 0.00 | 0.00 | 43 | 1007.7 |
| 20260507124004 | 25 | 194 | 9.7 | 24.1 | 0.00 | 0.00 | 0.00 | 43 | 1007.7 |
| 20260507123904 | 25 | 192 | 11.3 | 24.1 | 0.00 | 0.00 | 0.00 | 43 | 1007.7 |
| 20260507123804 | 25 | 190 | 11.3 | 24.1 | 0.00 | 0.00 | 0.00 | 44 | 1007.8 |
| 20260507123705 | 25 | 191 | 11.3 | 24.1 | 0.00 | 0.00 | 0.00 | 44 | 1007.8 |
| 20260507123604 | 25 | 189 | 11.3 | 24.1 | 0.00 | 0.00 | 0.00 | 44 | 1007.8 |
| 20260507123505 | 25 | 189 | 11.3 | 24.1 | 0.00 | 0.00 | 0.00 | 44 | 1007.7 |
| 20260507123407 | 25 | 188 | 11.3 | 24.1 | 0.00 | 0.00 | 0.00 | 44 | 1007.8 |
| 20260507123305 | 25 | 189 | 11.3 | 24.1 | 0.00 | 0.00 | 0.00 | 44 | 1007.8 |
| 20260507123205 | 25 | 189 | 11.3 | 24.1 | 0.00 | 0.00 | 0.00 | 44 | 1007.8 |
| 20260507123105 | 25 | 189 | 11.3 | 24.1 | 0.00 | 0.00 | 0.00 | 44 | 1007.8 |
| 20260507123004 | 25 | 190 | 11.3 | 24.1 | 0.00 | 0.00 | 0.00 | 44 | 1007.9 |
| 20260507122904 | 25 | 191 | 11.3 | 24.1 | 0.00 | 0.00 | 0.00 | 44 | 1007.9 |
| 20260507122804 | 25 | 190 | 11.3 | 24.1 | 0.00 | 0.00 | 0.00 | 44 | 1007.9 |
| 20260507122705 | 25 | 189 | 11.3 | 27.4 | 0.00 | 0.00 | 0.00 | 44 | 1007.8 |
| 20260507122604 | 25 | 188 | 11.3 | 27.4 | 0.00 | 0.00 | 0.00 | 43 | 1007.8 |
| 20260507122505 | 25 | 188 | 12.9 | 27.4 | 0.00 | 0.00 | 0.00 | 43 | 1007.7 |
| 20260507122404 | 25 | 188 | 12.9 | 27.4 | 0.00 | 0.00 | 0.00 | 42 | 1007.8 |
| 20260507122307 | 25 | 189 | 12.9 | 27.4 | 0.00 | 0.00 | 0.00 | 42 | 1007.8 |
| 20260507122205 | 25 | 190 | 12.9 | 27.4 | 0.00 | 0.00 | 0.00 | 42 | 1007.8 |
| 20260507122104 | 25 | 191 | 12.9 | 27.4 | 0.00 | 0.00 | 0.00 | 41 | 1007.8 |
| 20260507122006 | 25 | 188 | 12.9 | 27.4 | 0.00 | 0.00 | 0.00 | 41 | 1007.9 |
| 20260507121907 | 25 | 187 | 12.9 | 27.4 | 0.00 | 0.00 | 0.00 | 41 | 1008.0 |
| 20260507121804 | 25 | 187 | 12.9 | 27.4 | 0.00 | 0.00 | 0.00 | 41 | 1008.0 |
| 20260507121708 | 25 | 187 | 14.5 | 24.1 | 0.00 | 0.00 | 0.00 | 41 | 1008.0 |
| 20260507121606 | 25 | 187 | 14.5 | 35.4 | 0.00 | 0.00 | 0.00 | 40 | 1007.9 |
| 20260507121504 | 25 | 188 | 14.5 | 35.4 | 0.00 | 0.00 | 0.00 | 40 | 1007.9 |
| 20260507121404 | 25 | 188 | 14.5 | 35.4 | 0.00 | 0.00 | 0.00 | 40 | 1007.9 |
| 20260507121304 | 25 | 187 | 12.9 | 35.4 | 0.00 | 0.00 | 0.00 | 40 | 1007.9 |
| 20260507121204 | 25 | 188 | 12.9 | 35.4 | 0.00 | 0.00 | 0.00 | 40 | 1007.9 |
| 20260507121104 | 25 | 188 | 12.9 | 35.4 | 0.00 | 0.00 | 0.00 | 40 | 1007.8 |
| 20260507121005 | 25 | 189 | 12.9 | 35.4 | 0.00 | 0.00 | 0.00 | 40 | 1007.8 |
| 20260507120904 | 25 | 191 | 12.9 | 35.4 | 0.00 | 0.00 | 0.00 | 41 | 1007.8 |
| 20260507120805 | 25 | 192 | 12.9 | 35.4 | 0.00 | 0.00 | 0.00 | 40 | 1007.8 |
| 20260507120704 | 25 | 192 | 12.9 | 35.4 | 0.00 | 0.00 | 0.00 | 40 | 1007.8 |
| 20260507120604 | 25 | 194 | 12.9 | 29.0 | 0.00 | 0.00 | 0.00 | 40 | 1007.8 |
| 20260507120504 | 25 | 195 | 12.9 | 30.6 | 0.00 | 0.00 | 0.00 | 40 | 1007.8 |
| 20260507120404 | 25 | 195 | 12.9 | 30.6 | 0.00 | 0.00 | 0.00 | 40 | 1007.8 |
| 20260507120306 | 25 | 195 | 12.9 | 30.6 | 0.00 | 0.00 | 0.00 | 39 | 1007.9 |
| 20260507120205 | 25 | 196 | 12.9 | 30.6 | 0.00 | 0.00 | 0.00 | 38 | 1007.9 |
| 20260507120107 | 25 | 194 | 12.9 | 30.6 | 0.00 | 0.00 | 0.00 | 38 | 1007.8 |
| 20260507120013 | 25 | 195 | 12.9 | 30.6 | 0.00 | 0.00 | 0.00 | 38 | 1007.8 |
| 20260507115904 | 25 | 191 | 12.9 | 30.6 | 0.00 | 0.00 | 0.00 | 38 | 1007.7 |
| 20260507115804 | 25 | 192 | 12.9 | 32.2 | 0.00 | 0.00 | 0.00 | 38 | 1007.7 |
| 20260507115704 | 25 | 192 | 14.5 | 32.2 | 0.00 | 0.00 | 0.00 | 38 | 1007.7 |
| 20260507115604 | 25 | 192 | 14.5 | 32.2 | 0.00 | 0.00 | 0.00 | 37 | 1007.6 |
| 20260507115504 | 25 | 192 | 14.5 | 32.2 | 0.00 | 0.00 | 0.00 | 37 | 1007.6 |
| 20260507115404 | 25 | 193 | 14.5 | 32.2 | 0.00 | 0.00 | 0.00 | 37 | 1007.6 |
| 20260507115307 | 25 | 191 | 14.5 | 32.2 | 0.00 | 0.00 | 0.00 | 37 | 1007.8 |
| 20260507115204 | 25 | 190 | 14.5 | 32.2 | 0.00 | 0.00 | 0.00 | 38 | 1007.8 |
| 20260507115105 | 25 | 189 | 14.5 | 32.2 | 0.00 | 0.00 | 0.00 | 38 | 1007.9 |
| 20260507115007 | 25 | 188 | 14.5 | 32.2 | 0.00 | 0.00 | 0.00 | 38 | 1007.9 |
| 20260507114905 | 25 | 190 | 14.5 | 32.2 | 0.00 | 0.00 | 0.00 | 38 | 1008.0 |
| 20260507114812 | 25 | 190 | 14.5 | 30.6 | 0.00 | 0.00 | 0.00 | 38 | 1008.1 |
| 20260507114704 | 25 | 190 | 14.5 | 32.2 | 0.00 | 0.00 | 0.00 | 37 | 1008.1 |
| 20260507114605 | 25 | 190 | 14.5 | 32.2 | 0.00 | 0.00 | 0.00 | 36 | 1008.1 |
| 20260507114504 | 25 | 191 | 14.5 | 32.2 | 0.00 | 0.00 | 0.00 | 36 | 1007.9 |
| 20260507114404 | 26 | 192 | 12.9 | 32.2 | 0.00 | 0.00 | 0.00 | 35 | 1007.9 |
| 20260507114304 | 26 | 192 | 12.9 | 32.2 | 0.00 | 0.00 | 0.00 | 35 | 1008.1 |
| 20260507114204 | 26 | 193 | 12.9 | 32.2 | 0.00 | 0.00 | 0.00 | 35 | 1008.1 |
| 20260507114104 | 26 | 196 | 12.9 | 32.2 | 0.00 | 0.00 | 0.00 | 35 | 1008.2 |
| 20260507114004 | 26 | 196 | 12.9 | 32.2 | 0.00 | 0.00 | 0.00 | 34 | 1008.0 |
| 20260507113904 | 26 | 196 | 12.9 | 32.2 | 0.00 | 0.00 | 0.00 | 34 | 1008.0 |
| 20260507113804 | 26 | 196 | 12.9 | 30.6 | 0.00 | 0.00 | 0.00 | 34 | 1008.0 |
| 20260507113704 | 26 | 196 | 12.9 | 30.6 | 0.00 | 0.00 | 0.00 | 34 | 1008.0 |
| 20260507113604 | 25 | 195 | 12.9 | 30.6 | 0.00 | 0.00 | 0.00 | 34 | 1008.0 |
| 20260507113512 | 25 | 195 | 12.9 | 30.6 | 0.00 | 0.00 | 0.00 | 34 | 1008.0 |
| 20260507113409 | 25 | 196 | 12.9 | 27.4 | 0.00 | 0.00 | 0.00 | 34 | 1008.0 |
| 20260507113305 | 25 | 195 | 12.9 | 25.7 | 0.00 | 0.00 | 0.00 | 35 | 1008.0 |
| 20260507113203 | 26 | 196 | 12.9 | 25.7 | 0.00 | 0.00 | 0.00 | 35 | 1008.0 |
| 20260507113107 | 26 | 198 | 12.9 | 25.7 | 0.00 | 0.00 | 0.00 | 36 | 1008.1 |
| 20260507113004 | 26 | 201 | 12.9 | 25.7 | 0.00 | 0.00 | 0.00 | 36 | 1007.9 |
| 20260507112904 | 26 | 204 | 11.3 | 25.7 | 0.00 | 0.00 | 0.00 | 37 | 1007.9 |
| 20260507112804 | 26 | 204 | 11.3 | 25.7 | 0.00 | 0.00 | 0.00 | 37 | 1008.0 |
| 20260507112703 | 26 | 203 | 11.3 | 24.1 | 0.00 | 0.00 | 0.00 | 37 | 1007.9 |
| 20260507112604 | 26 | 202 | 11.3 | 25.7 | 0.00 | 0.00 | 0.00 | 37 | 1007.9 |
| 20260507112504 | 26 | 203 | 11.3 | 30.6 | 0.00 | 0.00 | 0.00 | 37 | 1007.9 |
| 20260507112404 | 26 | 200 | 11.3 | 30.6 | 0.00 | 0.00 | 0.00 | 36 | 1007.9 |
| 20260507112307 | 26 | 199 | 9.7 | 30.6 | 0.00 | 0.00 | 0.00 | 36 | 1007.9 |
| 20260507112205 | 26 | 196 | 9.7 | 30.6 | 0.00 | 0.00 | 0.00 | 35 | 1008.0 |
| 20260507112105 | 26 | 196 | 9.7 | 30.6 | 0.00 | 0.00 | 0.00 | 35 | 1008.0 |
| 20260507112005 | 26 | 195 | 9.7 | 30.6 | 0.00 | 0.00 | 0.00 | 35 | 1007.9 |
| 20260507111907 | 26 | 193 | 11.3 | 30.6 | 0.00 | 0.00 | 0.00 | 35 | 1007.9 |
| 20260507111808 | 26 | 192 | 11.3 | 30.6 | 0.00 | 0.00 | 0.00 | 36 | 1007.9 |
| 20260507111706 | 25 | 191 | 11.3 | 30.6 | 0.00 | 0.00 | 0.00 | 36 | 1008.1 |
| 20260507111607 | 25 | 190 | 11.3 | 30.6 | 0.00 | 0.00 | 0.00 | 36 | 1008.1 |
| 20260507111506 | 25 | 191 | 11.3 | 19.3 | 0.00 | 0.00 | 0.00 | 36 | 1008.1 |
| 20260507111405 | 25 | 190 | 11.3 | 20.9 | 0.00 | 0.00 | 0.00 | 37 | 1008.1 |
| 20260507111304 | 25 | 193 | 12.9 | 22.5 | 0.00 | 0.00 | 0.00 | 38 | 1008.1 |
| 20260507111204 | 25 | 195 | 12.9 | 22.5 | 0.00 | 0.00 | 0.00 | 39 | 1008.0 |
| 20260507111104 | 25 | 194 | 12.9 | 22.5 | 0.00 | 0.00 | 0.00 | 40 | 1008.0 |
| 20260507111005 | 25 | 198 | 12.9 | 22.5 | 0.00 | 0.00 | 0.00 | 39 | 1008.1 |
| 20260507110904 | 25 | 197 | 11.3 | 22.5 | 0.00 | 0.00 | 0.00 | 38 | 1008.1 |
| 20260507110804 | 25 | 200 | 11.3 | 24.1 | 0.00 | 0.00 | 0.00 | 39 | 1008.1 |
| 20260507110705 | 25 | 203 | 11.3 | 24.1 | 0.00 | 0.00 | 0.00 | 38 | 1008.1 |
| 20260507110606 | 25 | 205 | 11.3 | 24.1 | 0.00 | 0.00 | 0.00 | 38 | 1008.1 |
| 20260507110505 | 25 | 205 | 11.3 | 24.1 | 0.00 | 0.00 | 0.00 | 38 | 1008.0 |
| 20260507110413 | 26 | 208 | 11.3 | 24.1 | 0.00 | 0.00 | 0.00 | 37 | 1008.0 |
| 20260507110306 | 26 | 207 | 11.3 | 24.1 | 0.00 | 0.00 | 0.00 | 37 | 1008.0 |
| 20260507110207 | 26 | 207 | 11.3 | 24.1 | 0.00 | 0.00 | 0.00 | 37 | 1007.9 |
| 20260507110107 | 26 | 206 | 11.3 | 24.1 | 0.00 | 0.00 | 0.00 | 36 | 1007.9 |
| 20260507110006 | 26 | 202 | 11.3 | 24.1 | 0.00 | 0.00 | 0.00 | 36 | 1007.9 |
| 20260507105905 | 26 | 203 | 11.3 | 24.1 | 0.00 | 0.00 | 0.00 | 36 | 1007.9 |
| 20260507105805 | 26 | 201 | 11.3 | 24.1 | 0.00 | 0.00 | 0.00 | 36 | 1007.9 |
| 20260507105704 | 26 | 198 | 11.3 | 22.5 | 0.00 | 0.00 | 0.00 | 36 | 1007.8 |
| 20260507105604 | 26 | 198 | 11.3 | 22.5 | 0.00 | 0.00 | 0.00 | 36 | 1007.9 |
| 20260507105505 | 26 | 198 | 11.3 | 22.5 | 0.00 | 0.00 | 0.00 | 36 | 1007.9 |
| 20260507105404 | 26 | 200 | 11.3 | 25.7 | 0.00 | 0.00 | 0.00 | 36 | 1007.8 |
| 20260507105306 | 26 | 198 | 11.3 | 27.4 | 0.00 | 0.00 | 0.00 | 36 | 1007.8 |
| 20260507105204 | 26 | 198 | 11.3 | 27.4 | 0.00 | 0.00 | 0.00 | 37 | 1007.9 |
| 20260507105105 | 26 | 200 | 11.3 | 27.4 | 0.00 | 0.00 | 0.00 | 37 | 1007.9 |
| 20260507105006 | 26 | 204 | 11.3 | 27.4 | 0.00 | 0.00 | 0.00 | 37 | 1007.9 |
| 20260507104911 | 26 | 205 | 11.3 | 27.4 | 0.00 | 0.00 | 0.00 | 37 | 1007.9 |
| 20260507104806 | 26 | 205 | 11.3 | 27.4 | 0.00 | 0.00 | 0.00 | 37 | 1007.9 |
| 20260507104706 | 26 | 207 | 12.9 | 27.4 | 0.00 | 0.00 | 0.00 | 35 | 1007.9 |
| 20260507104606 | 26 | 207 | 12.9 | 27.4 | 0.00 | 0.00 | 0.00 | 35 | 1007.9 |
| 20260507104505 | 26 | 209 | 12.9 | 27.4 | 0.00 | 0.00 | 0.00 | 35 | 1007.9 |
| 20260507104405 | 26 | 210 | 12.9 | 27.4 | 0.00 | 0.00 | 0.00 | 35 | 1008.1 |
| 20260507104304 | 26 | 211 | 12.9 | 27.4 | 0.00 | 0.00 | 0.00 | 35 | 1008.1 |
| 20260507104205 | 26 | 213 | 12.9 | 27.4 | 0.00 | 0.00 | 0.00 | 34 | 1008.0 |
| 20260507104104 | 26 | 212 | 12.9 | 27.4 | 0.00 | 0.00 | 0.00 | 34 | 1008.1 |
| 20260507104005 | 26 | 210 | 12.9 | 27.4 | 0.00 | 0.00 | 0.00 | 35 | 1008.1 |
| 20260507103905 | 26 | 210 | 12.9 | 33.8 | 0.00 | 0.00 | 0.00 | 34 | 1007.9 |
| 20260507103804 | 26 | 210 | 11.3 | 33.8 | 0.00 | 0.00 | 0.00 | 34 | 1008.0 |
| 20260507103705 | 26 | 209 | 11.3 | 33.8 | 0.00 | 0.00 | 0.00 | 34 | 1008.0 |
| 20260507103604 | 26 | 208 | 11.3 | 33.8 | 0.00 | 0.00 | 0.00 | 34 | 1008.0 |
| 20260507103505 | 26 | 207 | 11.3 | 33.8 | 0.00 | 0.00 | 0.00 | 34 | 1008.0 |
| 20260507103305 | 26 | 203 | 11.3 | 33.8 | 0.00 | 0.00 | 0.00 | 35 | 1008.0 |
| 20260507103207 | 26 | 202 | 11.3 | 33.8 | 0.00 | 0.00 | 0.00 | 34 | 1008.0 |
| 20260507103106 | 26 | 200 | 11.3 | 33.8 | 0.00 | 0.00 | 0.00 | 34 | 1008.0 |
| 20260507102905 | 26 | 198 | 11.3 | 29.0 | 0.00 | 0.00 | 0.00 | 33 | 1007.9 |
| 20260507102810 | 26 | 200 | 11.3 | 29.0 | 0.00 | 0.00 | 0.00 | 33 | 1007.9 |
| 20260507102705 | 26 | 200 | 11.3 | 29.0 | 0.00 | 0.00 | 0.00 | 32 | 1007.9 |
| 20260507102604 | 26 | 203 | 11.3 | 29.0 | 0.00 | 0.00 | 0.00 | 32 | 1007.9 |
| 20260507102504 | 26 | 204 | 11.3 | 29.0 | 0.00 | 0.00 | 0.00 | 33 | 1008.1 |
| 20260507102404 | 26 | 205 | 11.3 | 29.0 | 0.00 | 0.00 | 0.00 | 33 | 1008.1 |
| 20260507102307 | 26 | 206 | 11.3 | 29.0 | 0.00 | 0.00 | 0.00 | 33 | 1008.0 |
| 20260507102205 | 26 | 207 | 11.3 | 29.0 | 0.00 | 0.00 | 0.00 | 33 | 1008.0 |
| 20260507102107 | 26 | 209 | 11.3 | 29.0 | 0.00 | 0.00 | 0.00 | 33 | 1008.0 |
| 20260507102007 | 26 | 210 | 11.3 | 27.4 | 0.00 | 0.00 | 0.00 | 33 | 1008.0 |
| 20260507101906 | 26 | 207 | 11.3 | 27.4 | 0.00 | 0.00 | 0.00 | 34 | 1008.0 |
| 20260507101806 | 26 | 206 | 11.3 | 24.1 | 0.00 | 0.00 | 0.00 | 34 | 1007.8 |
| 20260507101705 | 26 | 204 | 11.3 | 29.0 | 0.00 | 0.00 | 0.00 | 34 | 1007.8 |
| 20260507101611 | 26 | 204 | 11.3 | 29.0 | 0.00 | 0.00 | 0.00 | 34 | 1008.0 |
| 20260507101504 | 26 | 203 | 11.3 | 29.0 | 0.00 | 0.00 | 0.00 | 33 | 1008.0 |
| 20260507101404 | 26 | 202 | 11.3 | 29.0 | 0.00 | 0.00 | 0.00 | 33 | 1008.0 |
| 20260507101304 | 26 | 199 | 11.3 | 29.0 | 0.00 | 0.00 | 0.00 | 34 | 1008.1 |
| 20260507101205 | 26 | 198 | 11.3 | 29.0 | 0.00 | 0.00 | 0.00 | 34 | 1008.1 |
| 20260507101104 | 26 | 199 | 11.3 | 29.0 | 0.00 | 0.00 | 0.00 | 34 | 1008.1 |
| 20260507101007 | 26 | 196 | 11.3 | 29.0 | 0.00 | 0.00 | 0.00 | 34 | 1008.1 |
| 20260507100905 | 26 | 199 | 11.3 | 29.0 | 0.00 | 0.00 | 0.00 | 33 | 1008.1 |
| 20260507100804 | 26 | 201 | 11.3 | 29.0 | 0.00 | 0.00 | 0.00 | 33 | 1008.1 |
| 20260507100705 | 26 | 207 | 11.3 | 27.4 | 0.00 | 0.00 | 0.00 | 33 | 1008.2 |
| 20260507100604 | 26 | 204 | 11.3 | 27.4 | 0.00 | 0.00 | 0.00 | 33 | 1008.2 |
| 20260507100504 | 26 | 204 | 11.3 | 27.4 | 0.00 | 0.00 | 0.00 | 33 | 1008.1 |
| 20260507100405 | 26 | 205 | 11.3 | 27.4 | 0.00 | 0.00 | 0.00 | 33 | 1008.1 |
| 20260507100305 | 26 | 207 | 11.3 | 24.1 | 0.00 | 0.00 | 0.00 | 33 | 1008.1 |
| 20260507100204 | 26 | 205 | 11.3 | 25.7 | 0.00 | 0.00 | 0.00 | 33 | 1008.3 |
| 20260507100106 | 26 | 205 | 11.3 | 25.7 | 0.00 | 0.00 | 0.00 | 33 | 1008.3 |
| 20260507100005 | 26 | 208 | 11.3 | 25.7 | 0.00 | 0.00 | 0.00 | 34 | 1008.5 |
| 20260507095904 | 26 | 207 | 11.3 | 25.7 | 0.00 | 0.00 | 0.00 | 34 | 1008.5 |
| 20260507095804 | 26 | 204 | 11.3 | 25.7 | 0.00 | 0.00 | 0.00 | 34 | 1008.5 |
| 20260507095705 | 26 | 200 | 11.3 | 25.7 | 0.00 | 0.00 | 0.00 | 34 | 1008.5 |
| 20260507095604 | 26 | 200 | 11.3 | 25.7 | 0.00 | 0.00 | 0.00 | 34 | 1008.5 |
| 20260507095505 | 26 | 198 | 11.3 | 25.7 | 0.00 | 0.00 | 0.00 | 34 | 1008.5 |
| 20260507095405 | 26 | 201 | 11.3 | 25.7 | 0.00 | 0.00 | 0.00 | 34 | 1008.5 |
| 20260507095306 | 26 | 202 | 11.3 | 25.7 | 0.00 | 0.00 | 0.00 | 34 | 1008.4 |
| 20260507095204 | 26 | 203 | 11.3 | 25.7 | 0.00 | 0.00 | 0.00 | 34 | 1008.4 |
| 20260507095104 | 26 | 201 | 11.3 | 25.7 | 0.00 | 0.00 | 0.00 | 34 | 1008.4 |
| 20260507095005 | 26 | 199 | 11.3 | 25.7 | 0.00 | 0.00 | 0.00 | 34 | 1008.4 |
| 20260507094904 | 26 | 197 | 11.3 | 25.7 | 0.00 | 0.00 | 0.00 | 34 | 1008.5 |
| 20260507094804 | 26 | 200 | 11.3 | 25.7 | 0.00 | 0.00 | 0.00 | 33 | 1008.5 |
| 20260507094704 | 26 | 202 | 11.3 | 25.7 | 0.00 | 0.00 | 0.00 | 34 | 1008.3 |
| 20260507094606 | 26 | 203 | 11.3 | 25.7 | 0.00 | 0.00 | 0.00 | 34 | 1008.3 |
| 20260507094504 | 26 | 202 | 11.3 | 25.7 | 0.00 | 0.00 | 0.00 | 34 | 1008.4 |
| 20260507094406 | 26 | 200 | 11.3 | 24.1 | 0.00 | 0.00 | 0.00 | 34 | 1008.4 |
| 20260507094311 | 26 | 199 | 11.3 | 24.1 | 0.00 | 0.00 | 0.00 | 33 | 1008.4 |
| 20260507094235 | 26 | 197 | 11.3 | 24.1 | 0.00 | 0.00 | 0.00 | 34 | 1008.4 |
| 20260507094128 | 26 | 198 | 11.3 | 24.1 | 0.00 | 0.00 | 0.00 | 34 | 1008.4 |
| 20260507094035 | 25 | 198 | 11.3 | 24.1 | 0.00 | 0.00 | 0.00 | 35 | 1008.4 |
| 20260507093928 | 25 | 199 | 11.3 | 24.1 | 0.00 | 0.00 | 0.00 | 35 | 1008.4 |
| 20260507093834 | 25 | 200 | 11.3 | 24.1 | 0.00 | 0.00 | 0.00 | 35 | 1008.4 |
| 20260507093722 | 25 | 202 | 11.3 | 24.1 | 0.00 | 0.00 | 0.00 | 35 | 1008.4 |
| 20260507093627 | 25 | 203 | 11.3 | 24.1 | 0.00 | 0.00 | 0.00 | 35 | 1008.4 |
| 20260507093526 | 25 | 205 | 11.3 | 24.1 | 0.00 | 0.00 | 0.00 | 34 | 1008.4 |
| 20260507093418 | 25 | 206 | 11.3 | 22.5 | 0.00 | 0.00 | 0.00 | 35 | 1008.5 |
| 20260507093324 | 25 | 206 | 11.3 | 25.7 | 0.00 | 0.00 | 0.00 | 35 | 1008.5 |
| 20260507093228 | 25 | 210 | 11.3 | 25.7 | 0.00 | 0.00 | 0.00 | 35 | 1008.5 |
| 20260507093129 | 25 | 205 | 11.3 | 25.7 | 0.00 | 0.00 | 0.00 | 35 | 1008.5 |
| 20260507093015 | 25 | 206 | 11.3 | 25.7 | 0.00 | 0.00 | 0.00 | 35 | 1008.4 |
| 20260507092904 | 25 | 210 | 11.3 | 25.7 | 0.00 | 0.00 | 0.00 | 35 | 1008.4 |
| 20260507092804 | 25 | 209 | 11.3 | 30.6 | 0.00 | 0.00 | 0.00 | 35 | 1008.4 |
| 20260507092704 | 25 | 208 | 11.3 | 30.6 | 0.00 | 0.00 | 0.00 | 35 | 1008.5 |
| 20260507092604 | 25 | 206 | 11.3 | 30.6 | 0.00 | 0.00 | 0.00 | 35 | 1008.4 |
| 20260507092505 | 25 | 204 | 11.3 | 30.6 | 0.00 | 0.00 | 0.00 | 35 | 1008.4 |
| 20260507092404 | 25 | 205 | 11.3 | 30.6 | 0.00 | 0.00 | 0.00 | 35 | 1008.4 |
| 20260507092306 | 25 | 205 | 9.7 | 30.6 | 0.00 | 0.00 | 0.00 | 35 | 1008.4 |
| 20260507092204 | 25 | 205 | 9.7 | 30.6 | 0.00 | 0.00 | 0.00 | 35 | 1008.4 |
| 20260507092106 | 25 | 208 | 9.7 | 30.6 | 0.00 | 0.00 | 0.00 | 35 | 1008.4 |
| 20260507092007 | 25 | 210 | 9.7 | 30.6 | 0.00 | 0.00 | 0.00 | 35 | 1008.4 |
| 20260507091906 | 25 | 208 | 9.7 | 30.6 | 0.00 | 0.00 | 0.00 | 35 | 1008.4 |
| 20260507091808 | 25 | 206 | 9.7 | 29.0 | 0.00 | 0.00 | 0.00 | 35 | 1008.4 |
| 20260507091705 | 25 | 207 | 9.7 | 29.0 | 0.00 | 0.00 | 0.00 | 35 | 1008.4 |
| 20260507091606 | 25 | 209 | 9.7 | 20.9 | 0.00 | 0.00 | 0.00 | 36 | 1008.3 |
| 20260507091504 | 25 | 208 | 9.7 | 20.9 | 0.00 | 0.00 | 0.00 | 36 | 1008.3 |
| 20260507091403 | 25 | 209 | 9.7 | 20.9 | 0.00 | 0.00 | 0.00 | 35 | 1008.4 |
| 20260507091304 | 25 | 207 | 9.7 | 25.7 | 0.00 | 0.00 | 0.00 | 35 | 1008.4 |
| 20260507091204 | 25 | 206 | 9.7 | 25.7 | 0.00 | 0.00 | 0.00 | 35 | 1008.4 |
| 20260507091104 | 25 | 201 | 9.7 | 25.7 | 0.00 | 0.00 | 0.00 | 35 | 1008.4 |
| 20260507091005 | 25 | 200 | 9.7 | 25.7 | 0.00 | 0.00 | 0.00 | 35 | 1008.4 |
| 20260507090904 | 25 | 198 | 9.7 | 25.7 | 0.00 | 0.00 | 0.00 | 36 | 1008.5 |
| 20260507090804 | 25 | 201 | 9.7 | 25.7 | 0.00 | 0.00 | 0.00 | 36 | 1008.5 |
| 20260507090704 | 25 | 202 | 9.7 | 25.7 | 0.00 | 0.00 | 0.00 | 36 | 1008.5 |
| 20260507090606 | 25 | 201 | 9.7 | 25.7 | 0.00 | 0.00 | 0.00 | 36 | 1008.5 |
| 20260507090504 | 25 | 204 | 9.7 | 25.7 | 0.00 | 0.00 | 0.00 | 36 | 1008.5 |
| 20260507090404 | 25 | 204 | 9.7 | 25.7 | 0.00 | 0.00 | 0.00 | 37 | 1008.5 |
| 20260507090306 | 25 | 204 | 9.7 | 24.1 | 0.00 | 0.00 | 0.00 | 37 | 1008.5 |
| 20260507090206 | 25 | 201 | 9.7 | 29.0 | 0.00 | 0.00 | 0.00 | 37 | 1008.5 |
| 20260507090105 | 25 | 205 | 9.7 | 29.0 | 0.00 | 0.00 | 0.00 | 37 | 1008.6 |
| 20260507090005 | 25 | 203 | 9.7 | 29.0 | 0.00 | 0.00 | 0.00 | 37 | 1008.6 |
| 20260507085904 | 25 | 202 | 9.7 | 29.0 | 0.00 | 0.00 | 0.00 | 38 | 1008.6 |
| 20260507085804 | 25 | 199 | 9.7 | 29.0 | 0.00 | 0.00 | 0.00 | 38 | 1008.6 |
| 20260507085705 | 25 | 201 | 9.7 | 29.0 | 0.00 | 0.00 | 0.00 | 38 | 1008.6 |
| 20260507085605 | 25 | 202 | 9.7 | 29.0 | 0.00 | 0.00 | 0.00 | 38 | 1008.6 |
| 20260507085505 | 25 | 202 | 9.7 | 29.0 | 0.00 | 0.00 | 0.00 | 38 | 1008.7 |
| 20260507085405 | 25 | 202 | 9.7 | 29.0 | 0.00 | 0.00 | 0.00 | 38 | 1008.7 |
| 20260507085306 | 25 | 204 | 9.7 | 29.0 | 0.00 | 0.00 | 0.00 | 38 | 1008.6 |
| 20260507085205 | 25 | 203 | 8.0 | 19.3 | 0.00 | 0.00 | 0.00 | 38 | 1008.6 |
| 20260507085105 | 25 | 202 | 8.0 | 19.3 | 0.00 | 0.00 | 0.00 | 38 | 1008.7 |
| 20260507085004 | 25 | 202 | 8.0 | 19.3 | 0.00 | 0.00 | 0.00 | 38 | 1008.7 |
| 20260507084914 | 25 | 202 | 8.0 | 19.3 | 0.00 | 0.00 | 0.00 | 38 | 1008.7 |
| 20260507084806 | 25 | 204 | 8.0 | 19.3 | 0.00 | 0.00 | 0.00 | 38 | 1008.8 |
| 20260507084706 | 25 | 204 | 8.0 | 19.3 | 0.00 | 0.00 | 0.00 | 38 | 1008.8 |
| 20260507084605 | 25 | 201 | 8.0 | 19.3 | 0.00 | 0.00 | 0.00 | 38 | 1008.8 |
| 20260507084504 | 25 | 203 | 8.0 | 19.3 | 0.00 | 0.00 | 0.00 | 39 | 1008.9 |
| 20260507084404 | 25 | 200 | 8.0 | 17.7 | 0.00 | 0.00 | 0.00 | 39 | 1008.9 |
| 20260507084305 | 25 | 199 | 8.0 | 19.3 | 0.00 | 0.00 | 0.00 | 39 | 1008.8 |
| 20260507084205 | 25 | 201 | 8.0 | 19.3 | 0.00 | 0.00 | 0.00 | 39 | 1008.9 |
| 20260507084105 | 25 | 201 | 8.0 | 19.3 | 0.00 | 0.00 | 0.00 | 40 | 1008.9 |
| 20260507084005 | 25 | 201 | 8.0 | 19.3 | 0.00 | 0.00 | 0.00 | 40 | 1009.0 |
| 20260507083905 | 25 | 204 | 8.0 | 19.3 | 0.00 | 0.00 | 0.00 | 40 | 1009.0 |
| 20260507083805 | 25 | 205 | 8.0 | 19.3 | 0.00 | 0.00 | 0.00 | 39 | 1008.9 |
| 20260507083705 | 25 | 203 | 8.0 | 19.3 | 0.00 | 0.00 | 0.00 | 39 | 1008.8 |
| 20260507083606 | 24 | 202 | 8.0 | 19.3 | 0.00 | 0.00 | 0.00 | 39 | 1008.8 |
| 20260507083507 | 24 | 200 | 8.0 | 22.5 | 0.00 | 0.00 | 0.00 | 39 | 1008.8 |
| 20260507083406 | 24 | 202 | 8.0 | 22.5 | 0.00 | 0.00 | 0.00 | 39 | 1008.8 |
| 20260507083304 | 24 | 202 | 9.7 | 22.5 | 0.00 | 0.00 | 0.00 | 39 | 1008.9 |
| 20260507083205 | 24 | 204 | 9.7 | 22.5 | 0.00 | 0.00 | 0.00 | 40 | 1008.9 |
| 20260507083108 | 24 | 205 | 9.7 | 22.5 | 0.00 | 0.00 | 0.00 | 40 | 1008.9 |
| 20260507083005 | 24 | 205 | 9.7 | 22.5 | 0.00 | 0.00 | 0.00 | 40 | 1009.0 |
| 20260507082904 | 24 | 202 | 9.7 | 22.5 | 0.00 | 0.00 | 0.00 | 41 | 1009.0 |
| 20260507082805 | 24 | 200 | 9.7 | 22.5 | 0.00 | 0.00 | 0.00 | 41 | 1009.0 |
| 20260507082704 | 24 | 200 | 9.7 | 22.5 | 0.00 | 0.00 | 0.00 | 41 | 1008.9 |
| 20260507082605 | 24 | 201 | 9.7 | 22.5 | 0.00 | 0.00 | 0.00 | 40 | 1008.9 |
| 20260507082505 | 24 | 199 | 9.7 | 20.9 | 0.00 | 0.00 | 0.00 | 40 | 1008.9 |
| 20260507082405 | 24 | 199 | 9.7 | 20.9 | 0.00 | 0.00 | 0.00 | 41 | 1008.9 |
| 20260507082306 | 24 | 199 | 9.7 | 20.9 | 0.00 | 0.00 | 0.00 | 42 | 1008.9 |
| 20260507082205 | 24 | 199 | 9.7 | 20.9 | 0.00 | 0.00 | 0.00 | 42 | 1009.0 |
| 20260507082109 | 24 | 198 | 9.7 | 20.9 | 0.00 | 0.00 | 0.00 | 43 | 1009.0 |
| 20260507082014 | 24 | 200 | 9.7 | 20.9 | 0.00 | 0.00 | 0.00 | 43 | 1009.0 |
| 20260507081906 | 23 | 201 | 9.7 | 20.9 | 0.00 | 0.00 | 0.00 | 43 | 1009.1 |
| 20260507081805 | 23 | 199 | 9.7 | 20.9 | 0.00 | 0.00 | 0.00 | 44 | 1009.1 |
| 20260507081706 | 23 | 201 | 9.7 | 20.9 | 0.00 | 0.00 | 0.00 | 44 | 1009.0 |
| 20260507081615 | 23 | 197 | 9.7 | 20.9 | 0.00 | 0.00 | 0.00 | 44 | 1009.0 |
| 20260507081504 | 23 | 198 | 8.0 | 20.9 | 0.00 | 0.00 | 0.00 | 44 | 1009.1 |
| 20260507081405 | 23 | 196 | 8.0 | 20.9 | 0.00 | 0.00 | 0.00 | 44 | 1009.1 |
| 20260507081305 | 23 | 194 | 8.0 | 20.9 | 0.00 | 0.00 | 0.00 | 44 | 1009.1 |
| 20260507081205 | 24 | 193 | 8.0 | 20.9 | 0.00 | 0.00 | 0.00 | 44 | 1009.1 |
| 20260507081105 | 24 | 192 | 8.0 | 17.7 | 0.00 | 0.00 | 0.00 | 44 | 1009.1 |
| 20260507081005 | 23 | 191 | 8.0 | 17.7 | 0.00 | 0.00 | 0.00 | 44 | 1009.1 |
| 20260507080904 | 23 | 192 | 8.0 | 17.7 | 0.00 | 0.00 | 0.00 | 44 | 1009.2 |
| 20260507080804 | 24 | 195 | 8.0 | 17.7 | 0.00 | 0.00 | 0.00 | 44 | 1009.2 |
| 20260507080704 | 24 | 193 | 8.0 | 17.7 | 0.00 | 0.00 | 0.00 | 44 | 1009.2 |
| 20260507080606 | 24 | 201 | 8.0 | 17.7 | 0.00 | 0.00 | 0.00 | 44 | 1009.2 |
| 20260507080511 | 24 | 202 | 8.0 | 17.7 | 0.00 | 0.00 | 0.00 | 44 | 1009.2 |
| 20260507080405 | 24 | 202 | 8.0 | 17.7 | 0.00 | 0.00 | 0.00 | 43 | 1009.2 |
| 20260507080311 | 24 | 204 | 8.0 | 17.7 | 0.00 | 0.00 | 0.00 | 43 | 1009.2 |
| 20260507080006 | 24 | 202 | 8.0 | 20.9 | 0.00 | 0.00 | 0.00 | 43 | 1009.2 |
| 20260507075905 | 24 | 201 | 8.0 | 20.9 | 0.00 | 0.00 | 0.00 | 43 | 1009.2 |
| 20260507075805 | 24 | 200 | 8.0 | 20.9 | 0.00 | 0.00 | 0.00 | 42 | 1009.4 |
| 20260507075704 | 24 | 200 | 8.0 | 20.9 | 0.00 | 0.00 | 0.00 | 42 | 1009.4 |
| 20260507075605 | 24 | 200 | 8.0 | 20.9 | 0.00 | 0.00 | 0.00 | 42 | 1009.3 |
| 20260507075504 | 24 | 203 | 8.0 | 20.9 | 0.00 | 0.00 | 0.00 | 42 | 1009.3 |
| 20260507075405 | 24 | 203 | 8.0 | 20.9 | 0.00 | 0.00 | 0.00 | 41 | 1009.3 |
| 20260507075307 | 24 | 205 | 8.0 | 20.9 | 0.00 | 0.00 | 0.00 | 42 | 1009.4 |
| 20260507075205 | 24 | 203 | 8.0 | 20.9 | 0.00 | 0.00 | 0.00 | 41 | 1009.4 |
| 20260507075105 | 24 | 206 | 8.0 | 17.7 | 0.00 | 0.00 | 0.00 | 41 | 1009.4 |
| 20260507075007 | 24 | 208 | 8.0 | 16.1 | 0.00 | 0.00 | 0.00 | 41 | 1009.4 |
| 20260507074905 | 24 | 209 | 8.0 | 16.1 | 0.00 | 0.00 | 0.00 | 40 | 1009.4 |
| 20260507074806 | 24 | 209 | 8.0 | 16.1 | 0.00 | 0.00 | 0.00 | 40 | 1009.4 |
| 20260507074705 | 24 | 211 | 8.0 | 16.1 | 0.00 | 0.00 | 0.00 | 40 | 1009.4 |
| 20260507074605 | 24 | 208 | 8.0 | 17.7 | 0.00 | 0.00 | 0.00 | 40 | 1009.5 |
| 20260507074505 | 24 | 204 | 8.0 | 17.7 | 0.00 | 0.00 | 0.00 | 40 | 1009.5 |
| 20260507074404 | 24 | 204 | 8.0 | 17.7 | 0.00 | 0.00 | 0.00 | 41 | 1009.5 |
| 20260507074305 | 24 | 203 | 8.0 | 17.7 | 0.00 | 0.00 | 0.00 | 40 | 1009.5 |
| 20260507074204 | 23 | 205 | 8.0 | 17.7 | 0.00 | 0.00 | 0.00 | 40 | 1009.5 |
| 20260507074115 | 23 | 206 | 8.0 | 17.7 | 0.00 | 0.00 | 0.00 | 40 | 1009.5 |
| 20260507074004 | 23 | 205 | 8.0 | 17.7 | 0.00 | 0.00 | 0.00 | 40 | 1009.6 |
| 20260507073905 | 23 | 204 | 6.4 | 17.7 | 0.00 | 0.00 | 0.00 | 40 | 1009.6 |
| 20260507073805 | 23 | 204 | 6.4 | 17.7 | 0.00 | 0.00 | 0.00 | 40 | 1009.6 |
| 20260507073704 | 23 | 202 | 6.4 | 17.7 | 0.00 | 0.00 | 0.00 | 40 | 1009.6 |
| 20260507073604 | 23 | 203 | 6.4 | 17.7 | 0.00 | 0.00 | 0.00 | 40 | 1009.7 |
| 20260507073505 | 23 | 202 | 6.4 | 17.7 | 0.00 | 0.00 | 0.00 | 40 | 1009.8 |
| 20260507073405 | 23 | 201 | 6.4 | 16.1 | 0.00 | 0.00 | 0.00 | 41 | 1009.8 |
| 20260507073306 | 23 | 202 | 6.4 | 16.1 | 0.00 | 0.00 | 0.00 | 41 | 1009.8 |
| 20260507073205 | 23 | 203 | 6.4 | 16.1 | 0.00 | 0.00 | 0.00 | 41 | 1009.8 |
| 20260507073108 | 23 | 201 | 6.4 | 16.1 | 0.00 | 0.00 | 0.00 | 41 | 1009.8 |
| 20260507073005 | 23 | 200 | 6.4 | 16.1 | 0.00 | 0.00 | 0.00 | 41 | 1009.9 |
| 20260507072904 | 23 | 199 | 6.4 | 16.1 | 0.00 | 0.00 | 0.00 | 41 | 1009.9 |
| 20260507072804 | 23 | 200 | 6.4 | 17.7 | 0.00 | 0.00 | 0.00 | 42 | 1009.9 |
| 20260507072704 | 23 | 199 | 6.4 | 17.7 | 0.00 | 0.00 | 0.00 | 42 | 1009.9 |
| 20260507072605 | 23 | 201 | 6.4 | 17.7 | 0.00 | 0.00 | 0.00 | 42 | 1010.0 |
| 20260507072504 | 23 | 202 | 6.4 | 17.7 | 0.00 | 0.00 | 0.00 | 42 | 1010.0 |
| 20260507072404 | 23 | 202 | 6.4 | 17.7 | 0.00 | 0.00 | 0.00 | 43 | 1010.0 |
| 20260507072306 | 23 | 201 | 6.4 | 17.7 | 0.00 | 0.00 | 0.00 | 43 | 1009.9 |
| 20260507072204 | 23 | 198 | 6.4 | 17.7 | 0.00 | 0.00 | 0.00 | 43 | 1010.1 |
| 20260507072104 | 23 | 195 | 6.4 | 17.7 | 0.00 | 0.00 | 0.00 | 43 | 1010.1 |
| 20260507072006 | 23 | 196 | 6.4 | 17.7 | 0.00 | 0.00 | 0.00 | 43 | 1010.1 |
| 20260507071910 | 23 | 197 | 6.4 | 17.7 | 0.00 | 0.00 | 0.00 | 43 | 1010.1 |
| 20260507071810 | 23 | 200 | 6.4 | 16.1 | 0.00 | 0.00 | 0.00 | 43 | 1010.0 |
| 20260507071705 | 23 | 199 | 6.4 | 16.1 | 0.00 | 0.00 | 0.00 | 43 | 1010.1 |
| 20260507071605 | 23 | 197 | 6.4 | 16.1 | 0.00 | 0.00 | 0.00 | 43 | 1010.1 |
| 20260507071504 | 23 | 200 | 6.4 | 16.1 | 0.00 | 0.00 | 0.00 | 44 | 1010.0 |
| 20260507071404 | 23 | 200 | 6.4 | 16.1 | 0.00 | 0.00 | 0.00 | 43 | 1010.0 |
| 20260507071304 | 23 | 198 | 6.4 | 19.3 | 0.00 | 0.00 | 0.00 | 44 | 1010.0 |
| 20260507071204 | 22 | 197 | 6.4 | 19.3 | 0.00 | 0.00 | 0.00 | 44 | 1010.0 |
| 20260507071104 | 22 | 197 | 6.4 | 19.3 | 0.00 | 0.00 | 0.00 | 44 | 1010.0 |
| 20260507071004 | 22 | 198 | 6.4 | 19.3 | 0.00 | 0.00 | 0.00 | 44 | 1010.0 |
| 20260507070904 | 22 | 196 | 6.4 | 19.3 | 0.00 | 0.00 | 0.00 | 44 | 1010.0 |
| 20260507070804 | 22 | 192 | 6.4 | 19.3 | 0.00 | 0.00 | 0.00 | 44 | 1010.0 |
| 20260507070709 | 22 | 192 | 6.4 | 19.3 | 0.00 | 0.00 | 0.00 | 45 | 1009.9 |
| 20260507070604 | 22 | 192 | 4.8 | 19.3 | 0.00 | 0.00 | 0.00 | 45 | 1009.9 |
| 20260507070505 | 22 | 191 | 4.8 | 19.3 | 0.00 | 0.00 | 0.00 | 45 | 1010.0 |
| 20260507070405 | 22 | 188 | 4.8 | 19.3 | 0.00 | 0.00 | 0.00 | 45 | 1010.1 |
| 20260507070310 | 22 | 190 | 4.8 | 17.7 | 0.00 | 0.00 | 0.00 | 45 | 1010.1 |
| 20260507070205 | 22 | 193 | 4.8 | 17.7 | 0.00 | 0.00 | 0.00 | 45 | 1010.0 |
| 20260507070104 | 22 | 194 | 4.8 | 17.7 | 0.00 | 0.00 | 0.00 | 45 | 1010.0 |
| 20260507070009 | 22 | 190 | 4.8 | 17.7 | 0.00 | 0.00 | 0.00 | 45 | 1010.0 |
| 20260507065904 | 22 | 192 | 4.8 | 17.7 | 0.00 | 0.00 | 0.00 | 47 | 1010.1 |
| 20260507065804 | 22 | 195 | 4.8 | 17.7 | 0.00 | 0.00 | 0.00 | 47 | 1010.1 |
| 20260507065704 | 22 | 197 | 4.8 | 17.7 | 0.00 | 0.00 | 0.00 | 47 | 1010.1 |
| 20260507065604 | 21 | 200 | 4.8 | 17.7 | 0.00 | 0.00 | 0.00 | 47 | 1010.1 |
| 20260507065504 | 21 | 202 | 4.8 | 17.7 | 0.00 | 0.00 | 0.00 | 47 | 1010.2 |
| 20260507065404 | 21 | 205 | 4.8 | 17.7 | 0.00 | 0.00 | 0.00 | 47 | 1010.2 |
| 20260507065306 | 21 | 203 | 4.8 | 14.5 | 0.00 | 0.00 | 0.00 | 48 | 1010.2 |
| 20260507065203 | 21 | 200 | 4.8 | 14.5 | 0.00 | 0.00 | 0.00 | 49 | 1010.3 |
| 20260507065106 | 21 | 208 | 4.8 | 14.5 | 0.00 | 0.00 | 0.00 | 49 | 1010.2 |
| 20260507065004 | 21 | 220 | 4.8 | 14.5 | 0.00 | 0.00 | 0.00 | 49 | 1010.2 |
| 20260507064904 | 21 | 220 | 4.8 | 14.5 | 0.00 | 0.00 | 0.00 | 51 | 1010.3 |
| 20260507064804 | 20 | 225 | 4.8 | 16.1 | 0.00 | 0.00 | 0.00 | 51 | 1010.3 |
| 20260507064704 | 20 | 229 | 4.8 | 16.1 | 0.00 | 0.00 | 0.00 | 52 | 1010.4 |
| 20260507064605 | 20 | 228 | 4.8 | 16.1 | 0.00 | 0.00 | 0.00 | 54 | 1010.6 |
| 20260507064504 | 20 | 236 | 4.8 | 16.1 | 0.00 | 0.00 | 0.00 | 56 | 1010.6 |
| 20260507064404 | 20 | 251 | 3.2 | 16.1 | 0.00 | 0.00 | 0.00 | 60 | 1010.5 |
| 20260507064304 | 20 | 251 | 3.2 | 16.1 | 0.00 | 0.00 | 0.00 | 59 | 1010.5 |
| 20260507064204 | 20 | 250 | 3.2 | 16.1 | 0.00 | 0.00 | 0.00 | 62 | 1010.5 |
| 20260507064104 | 20 | 248 | 3.2 | 16.1 | 0.00 | 0.00 | 0.00 | 59 | 1010.6 |
| 20260507064004 | 20 | 242 | 3.2 | 16.1 | 0.00 | 0.00 | 0.00 | 58 | 1010.6 |
| 20260507063904 | 19 | 245 | 3.2 | 16.1 | 0.00 | 0.00 | 0.00 | 62 | 1010.6 |
| 20260507063703 | 19 | 249 | 3.2 | 11.3 | 0.00 | 0.00 | 0.00 | 62 | 1010.6 |
| 20260507063607 | 19 | 262 | 3.2 | 11.3 | 0.00 | 0.00 | 0.00 | 65 | 1010.6 |
| 20260507063504 | 19 | 260 | 3.2 | 11.3 | 0.00 | 0.00 | 0.00 | 64 | 1010.6 |
| 20260507063405 | 19 | 258 | 3.2 | 11.3 | 0.00 | 0.00 | 0.00 | 58 | 1010.6 |
| 20260507063304 | 18 | 275 | 3.2 | 11.3 | 0.00 | 0.00 | 0.00 | 58 | 1010.6 |
| 20260507063206 | 18 | 303 | 3.2 | 11.3 | 0.00 | 0.00 | 0.00 | 58 | 1010.6 |
| 20260507063105 | 18 | 326 | 3.2 | 9.7 | 0.00 | 0.00 | 0.00 | 60 | 1010.5 |
| 20260507063004 | 18 | 333 | 3.2 | 9.7 | 0.00 | 0.00 | 0.00 | 64 | 1010.5 |
| 20260507062904 | 18 | 343 | 3.2 | 6.4 | 0.00 | 0.00 | 0.00 | 68 | 1010.6 |
| 20260507062804 | 18 | 340 | 3.2 | 6.4 | 0.00 | 0.00 | 0.00 | 69 | 1010.6 |
| 20260507062704 | 18 | 339 | 3.2 | 6.4 | 0.00 | 0.00 | 0.00 | 68 | 1010.6 |
| 20260507062604 | 18 | 343 | 3.2 | 6.4 | 0.00 | 0.00 | 0.00 | 69 | 1010.6 |
| 20260507062504 | 18 | 346 | 3.2 | 6.4 | 0.00 | 0.00 | 0.00 | 69 | 1010.6 |
| 20260507062405 | 18 | 351 | 3.2 | 6.4 | 0.00 | 0.00 | 0.00 | 69 | 1010.6 |
| 20260507062306 | 18 | 360 | 1.6 | 6.4 | 0.00 | 0.00 | 0.00 | 69 | 1010.5 |
| 20260507062205 | 18 | 10 | 1.6 | 6.4 | 0.00 | 0.00 | 0.00 | 68 | 1010.5 |
| 20260507062106 | 18 | 23 | 1.6 | 6.4 | 0.00 | 0.00 | 0.00 | 69 | 1010.6 |
| 20260507062006 | 18 | 38 | 1.6 | 6.4 | 0.00 | 0.00 | 0.00 | 69 | 1010.6 |
| 20260507061909 | 18 | 48 | 1.6 | 6.4 | 0.00 | 0.00 | 0.00 | 66 | 1010.5 |
| 20260507061811 | 18 | 54 | 1.6 | 6.4 | 0.00 | 0.00 | 0.00 | 66 | 1010.7 |
| 20260507061706 | 18 | 55 | 1.6 | 6.4 | 0.00 | 0.00 | 0.00 | 70 | 1010.7 |
| 20260507061505 | 18 | 63 | 1.6 | 6.4 | 0.00 | 0.00 | 0.00 | 71 | 1010.7 |
| 20260507061405 | 18 | 65 | 1.6 | 6.4 | 0.00 | 0.00 | 0.00 | 70 | 1010.7 |
| 20260507061305 | 18 | 70 | 1.6 | 6.4 | 0.00 | 0.00 | 0.00 | 70 | 1010.8 |
| 20260507061205 | 18 | 73 | 1.6 | 6.4 | 0.00 | 0.00 | 0.00 | 71 | 1010.8 |
| 20260507061104 | 18 | 77 | 1.6 | 6.4 | 0.00 | 0.00 | 0.00 | 71 | 1010.8 |
| 20260507061005 | 18 | 83 | 1.6 | 6.4 | 0.00 | 0.00 | 0.00 | 71 | 1010.8 |
| 20260507060905 | 18 | 84 | 1.6 | 6.4 | 0.00 | 0.00 | 0.00 | 71 | 1010.8 |
| 20260507060806 | 18 | 85 | 1.6 | 6.4 | 0.00 | 0.00 | 0.00 | 72 | 1010.7 |
| 20260507060705 | 18 | 87 | 1.6 | 6.4 | 0.00 | 0.00 | 0.00 | 72 | 1010.7 |
| 20260507060606 | 18 | 88 | 1.6 | 6.4 | 0.00 | 0.00 | 0.00 | 72 | 1010.7 |
| 20260507060506 | 18 | 91 | 1.6 | 4.8 | 0.00 | 0.00 | 0.00 | 73 | 1010.6 |
| 20260507060406 | 18 | 92 | 1.6 | 4.8 | 0.00 | 0.00 | 0.00 | 73 | 1010.6 |
| 20260507060310 | 18 | 91 | 1.6 | 4.8 | 0.00 | 0.00 | 0.00 | 73 | 1010.7 |
| 20260507060205 | 18 | 90 | 1.6 | 4.8 | 0.00 | 0.00 | 0.00 | 73 | 1010.7 |
| 20260507060105 | 18 | 90 | 0.0 | 4.8 | 0.00 | 0.00 | 0.00 | 73 | 1010.7 |
| 20260507060005 | 18 | 89 | 0.0 | 4.8 | 0.00 | 0.00 | 0.00 | 73 | 1010.7 |
| 20260507055904 | 18 | 89 | 0.0 | 4.8 | 0.00 | 0.00 | 0.00 | 73 | 1010.7 |
| 20260507055805 | 18 | 88 | 0.0 | 4.8 | 0.00 | 0.00 | 0.00 | 73 | 1010.7 |
| 20260507055704 | 18 | 89 | 0.0 | 4.8 | 0.00 | 0.00 | 0.00 | 73 | 1010.7 |
| 20260507055604 | 18 | 95 | 0.0 | 4.8 | 0.00 | 0.00 | 0.00 | 73 | 1010.7 |
| 20260507055505 | 18 | 96 | 0.0 | 3.2 | 0.00 | 0.00 | 0.00 | 73 | 1010.6 |
| 20260507055408 | 18 | 96 | 0.0 | 1.6 | 0.00 | 0.00 | 0.00 | 73 | 1010.6 |
| 20260507055306 | 18 | 96 | 1.6 | 3.2 | 0.00 | 0.00 | 0.00 | 73 | 1010.7 |
| 20260507055204 | 18 | 98 | 1.6 | 3.2 | 0.00 | 0.00 | 0.00 | 74 | 1010.7 |
| 20260507055105 | 18 | 88 | 1.6 | 6.4 | 0.00 | 0.00 | 0.00 | 73 | 1010.7 |
| 20260507055012 | 18 | 88 | 1.6 | 6.4 | 0.00 | 0.00 | 0.00 | 74 | 1010.7 |
| 20260507054906 | 18 | 92 | 1.6 | 6.4 | 0.00 | 0.00 | 0.00 | 74 | 1010.7 |
| 20260507054804 | 18 | 107 | 1.6 | 6.4 | 0.00 | 0.00 | 0.00 | 74 | 1010.7 |
| 20260507054705 | 18 | 112 | 1.6 | 6.4 | 0.00 | 0.00 | 0.00 | 74 | 1010.7 |
| 20260507054605 | 18 | 118 | 1.6 | 6.4 | 0.00 | 0.00 | 0.00 | 74 | 1010.7 |
| 20260507054505 | 18 | 126 | 1.6 | 6.4 | 0.00 | 0.00 | 0.00 | 74 | 1010.7 |
| 20260507054404 | 18 | 140 | 1.6 | 6.4 | 0.00 | 0.00 | 0.00 | 74 | 1010.6 |
| 20260507054305 | 18 | 149 | 1.6 | 6.4 | 0.00 | 0.00 | 0.00 | 74 | 1010.6 |
| 20260507054204 | 18 | 159 | 1.6 | 6.4 | 0.00 | 0.00 | 0.00 | 74 | 1010.6 |
| 20260507054104 | 18 | 177 | 1.6 | 4.8 | 0.00 | 0.00 | 0.00 | 74 | 1010.6 |
| 20260507054004 | 18 | 178 | 1.6 | 4.8 | 0.00 | 0.00 | 0.00 | 74 | 1010.7 |
| 20260507053904 | 18 | 183 | 1.6 | 6.4 | 0.00 | 0.00 | 0.00 | 73 | 1010.8 |
| 20260507053804 | 18 | 196 | 1.6 | 6.4 | 0.00 | 0.00 | 0.00 | 74 | 1010.8 |
| 20260507053704 | 18 | 205 | 1.6 | 6.4 | 0.00 | 0.00 | 0.00 | 74 | 1010.7 |
| 20260507053604 | 18 | 199 | 1.6 | 6.4 | 0.00 | 0.00 | 0.00 | 74 | 1010.7 |
| 20260507053506 | 18 | 192 | 1.6 | 6.4 | 0.00 | 0.00 | 0.00 | 74 | 1010.7 |
| 20260507053405 | 18 | 187 | 1.6 | 6.4 | 0.00 | 0.00 | 0.00 | 74 | 1010.7 |
| 20260507053305 | 18 | 183 | 1.6 | 6.4 | 0.00 | 0.00 | 0.00 | 74 | 1010.7 |
| 20260507053206 | 18 | 181 | 1.6 | 8.0 | 0.00 | 0.00 | 0.00 | 74 | 1010.7 |
| 20260507053105 | 18 | 181 | 1.6 | 8.0 | 0.00 | 0.00 | 0.00 | 75 | 1010.7 |
| 20260507053005 | 18 | 180 | 1.6 | 8.0 | 0.00 | 0.00 | 0.00 | 75 | 1010.8 |
| 20260507052905 | 18 | 180 | 1.6 | 8.0 | 0.00 | 0.00 | 0.00 | 75 | 1010.8 |
| 20260507052805 | 18 | 176 | 1.6 | 8.0 | 0.00 | 0.00 | 0.00 | 75 | 1010.8 |
| 20260507052705 | 18 | 171 | 1.6 | 8.0 | 0.00 | 0.00 | 0.00 | 75 | 1010.7 |
| 20260507052605 | 18 | 169 | 1.6 | 8.0 | 0.00 | 0.00 | 0.00 | 75 | 1010.7 |
| 20260507052505 | 18 | 170 | 1.6 | 8.0 | 0.00 | 0.00 | 0.00 | 75 | 1010.7 |
| 20260507052405 | 17 | 167 | 1.6 | 8.0 | 0.00 | 0.00 | 0.00 | 75 | 1010.7 |
| 20260507052306 | 17 | 167 | 1.6 | 8.0 | 0.00 | 0.00 | 0.00 | 75 | 1010.7 |
| 20260507052205 | 17 | 167 | 1.6 | 6.4 | 0.00 | 0.00 | 0.00 | 75 | 1010.7 |
| 20260507052104 | 17 | 167 | 1.6 | 6.4 | 0.00 | 0.00 | 0.00 | 75 | 1010.8 |
| 20260507052005 | 17 | 173 | 1.6 | 6.4 | 0.00 | 0.00 | 0.00 | 75 | 1010.8 |
| 20260507051905 | 17 | 167 | 1.6 | 6.4 | 0.00 | 0.00 | 0.00 | 76 | 1010.9 |
| 20260507051806 | 17 | 164 | 1.6 | 6.4 | 0.00 | 0.00 | 0.00 | 76 | 1010.9 |
| 20260507051706 | 17 | 165 | 1.6 | 6.4 | 0.00 | 0.00 | 0.00 | 76 | 1010.9 |
| 20260507051607 | 17 | 169 | 1.6 | 6.4 | 0.00 | 0.00 | 0.00 | 76 | 1011.0 |
| 20260507051504 | 17 | 178 | 3.2 | 6.4 | 0.00 | 0.00 | 0.00 | 76 | 1011.0 |
| 20260507051404 | 17 | 189 | 3.2 | 6.4 | 0.00 | 0.00 | 0.00 | 76 | 1010.9 |
| 20260507051304 | 17 | 190 | 3.2 | 6.4 | 0.00 | 0.00 | 0.00 | 76 | 1010.9 |
| 20260507051204 | 17 | 185 | 3.2 | 11.3 | 0.00 | 0.00 | 0.00 | 76 | 1010.9 |
| 20260507051007 | 17 | 175 | 3.2 | 11.3 | 0.00 | 0.00 | 0.00 | 76 | 1010.9 |
| 20260507050904 | 17 | 172 | 3.2 | 11.3 | 0.00 | 0.00 | 0.00 | 76 | 1010.9 |
| 20260507050804 | 17 | 168 | 3.2 | 11.3 | 0.00 | 0.00 | 0.00 | 76 | 1011.0 |
| 20260507050704 | 17 | 169 | 3.2 | 11.3 | 0.00 | 0.00 | 0.00 | 76 | 1011.0 |
| 20260507050604 | 17 | 170 | 3.2 | 11.3 | 0.00 | 0.00 | 0.00 | 77 | 1011.0 |
| 20260507050505 | 17 | 169 | 3.2 | 11.3 | 0.00 | 0.00 | 0.00 | 77 | 1011.0 |
| 20260507050406 | 17 | 167 | 3.2 | 11.3 | 0.00 | 0.00 | 0.00 | 77 | 1011.0 |
| 20260507050306 | 17 | 169 | 3.2 | 11.3 | 0.00 | 0.00 | 0.00 | 77 | 1010.9 |
| 20260507050205 | 17 | 172 | 3.2 | 9.7 | 0.00 | 0.00 | 0.00 | 77 | 1010.9 |
| 20260507050105 | 17 | 174 | 3.2 | 9.7 | 0.00 | 0.00 | 0.00 | 77 | 1010.9 |
| 20260507050005 | 17 | 171 | 3.2 | 9.7 | 0.00 | 0.00 | 0.00 | 77 | 1010.9 |
| 20260507045904 | 17 | 175 | 3.2 | 9.7 | 0.00 | 0.00 | 0.00 | 78 | 1010.9 |
| 20260507045804 | 17 | 178 | 3.2 | 8.0 | 0.00 | 0.00 | 0.00 | 78 | 1010.9 |
| 20260507045704 | 17 | 178 | 3.2 | 12.9 | 0.00 | 0.00 | 0.00 | 78 | 1010.9 |
| 20260507045604 | 17 | 177 | 3.2 | 12.9 | 0.00 | 0.00 | 0.00 | 79 | 1010.9 |
| 20260507045505 | 17 | 179 | 3.2 | 12.9 | 0.00 | 0.00 | 0.00 | 79 | 1010.8 |
| 20260507045404 | 17 | 184 | 3.2 | 12.9 | 0.00 | 0.00 | 0.00 | 79 | 1010.8 |
| 20260507045306 | 17 | 183 | 3.2 | 12.9 | 0.00 | 0.00 | 0.00 | 79 | 1010.9 |
| 20260507045204 | 17 | 184 | 3.2 | 12.9 | 0.00 | 0.00 | 0.00 | 79 | 1010.9 |
| 20260507045104 | 17 | 190 | 3.2 | 12.9 | 0.00 | 0.00 | 0.00 | 79 | 1010.9 |
| 20260507045006 | 17 | 189 | 3.2 | 12.9 | 0.00 | 0.00 | 0.00 | 79 | 1011.0 |
| 20260507044904 | 17 | 186 | 3.2 | 12.9 | 0.00 | 0.00 | 0.00 | 79 | 1011.0 |
| 20260507044806 | 17 | 185 | 3.2 | 12.9 | 0.00 | 0.00 | 0.00 | 80 | 1011.0 |
| 20260507044705 | 17 | 203 | 3.2 | 9.7 | 0.00 | 0.00 | 0.00 | 80 | 1011.0 |
| 20260507044605 | 17 | 217 | 3.2 | 8.0 | 0.00 | 0.00 | 0.00 | 80 | 1011.1 |
| 20260507044505 | 17 | 171 | 3.2 | 8.0 | 0.00 | 0.00 | 0.00 | 80 | 1011.1 |
| 20260507044405 | 17 | 154 | 3.2 | 8.0 | 0.00 | 0.00 | 0.00 | 80 | 1011.1 |
| 20260507044304 | 17 | 153 | 3.2 | 8.0 | 0.00 | 0.00 | 0.00 | 80 | 1011.1 |
| 20260507044204 | 17 | 112 | 3.2 | 8.0 | 0.00 | 0.00 | 0.00 | 80 | 1011.2 |
| 20260507044104 | 17 | 85 | 3.2 | 8.0 | 0.00 | 0.00 | 0.00 | 80 | 1011.2 |
| 20260507044004 | 17 | 29 | 3.2 | 8.0 | 0.00 | 0.00 | 0.00 | 80 | 1011.2 |
| 20260507043904 | 17 | 336 | 3.2 | 8.0 | 0.00 | 0.00 | 0.00 | 80 | 1011.2 |
| 20260507043804 | 17 | 336 | 3.2 | 8.0 | 0.00 | 0.00 | 0.00 | 80 | 1011.1 |
| 20260507043704 | 17 | 18 | 3.2 | 8.0 | 0.00 | 0.00 | 0.00 | 80 | 1011.1 |
| 20260507043604 | 17 | 349 | 3.2 | 8.0 | 0.00 | 0.00 | 0.00 | 80 | 1011.1 |
| 20260507043505 | 17 | 327 | 3.2 | 8.0 | 0.00 | 0.00 | 0.00 | 80 | 1011.1 |
| 20260507043404 | 17 | 329 | 3.2 | 8.0 | 0.00 | 0.00 | 0.00 | 80 | 1011.1 |
| 20260507043305 | 17 | 325 | 3.2 | 8.0 | 0.00 | 0.00 | 0.00 | 80 | 1011.0 |
| 20260507043205 | 17 | 297 | 3.2 | 8.0 | 0.00 | 0.00 | 0.00 | 79 | 1011.1 |
| 20260507043105 | 17 | 265 | 3.2 | 6.4 | 0.00 | 0.00 | 0.00 | 79 | 1011.1 |
| 20260507043004 | 17 | 207 | 3.2 | 6.4 | 0.00 | 0.00 | 0.00 | 79 | 1011.1 |
| 20260507042905 | 17 | 191 | 3.2 | 6.4 | 0.00 | 0.00 | 0.00 | 79 | 1011.1 |
| 20260507042804 | 17 | 189 | 3.2 | 8.0 | 0.00 | 0.00 | 0.00 | 79 | 1011.1 |
| 20260507042704 | 17 | 188 | 1.6 | 8.0 | 0.00 | 0.00 | 0.00 | 79 | 1011.2 |
| 20260507042604 | 17 | 180 | 1.6 | 8.0 | 0.00 | 0.00 | 0.00 | 79 | 1011.2 |
| 20260507042504 | 17 | 173 | 1.6 | 8.0 | 0.00 | 0.00 | 0.00 | 79 | 1011.2 |
| 20260507042404 | 17 | 173 | 1.6 | 8.0 | 0.00 | 0.00 | 0.00 | 78 | 1011.2 |
| 20260507042306 | 17 | 171 | 1.6 | 8.0 | 0.00 | 0.00 | 0.00 | 77 | 1011.2 |
| 20260507042204 | 17 | 166 | 1.6 | 8.0 | 0.00 | 0.00 | 0.00 | 77 | 1011.1 |
| 20260507042104 | 17 | 168 | 1.6 | 8.0 | 0.00 | 0.00 | 0.00 | 77 | 1011.1 |
| 20260507042005 | 17 | 160 | 1.6 | 8.0 | 0.00 | 0.00 | 0.00 | 76 | 1011.1 |
| 20260507041905 | 17 | 151 | 1.6 | 8.0 | 0.00 | 0.00 | 0.00 | 76 | 1011.1 |
| 20260507041807 | 17 | 151 | 1.6 | 6.4 | 0.00 | 0.00 | 0.00 | 76 | 1011.1 |
| 20260507041705 | 17 | 146 | 1.6 | 6.4 | 0.00 | 0.00 | 0.00 | 76 | 1011.1 |
| 20260507041605 | 17 | 141 | 1.6 | 6.4 | 0.00 | 0.00 | 0.00 | 76 | 1011.1 |
| 20260507041504 | 17 | 139 | 1.6 | 6.4 | 0.00 | 0.00 | 0.00 | 76 | 1011.1 |
| 20260507041404 | 17 | 138 | 1.6 | 4.8 | 0.00 | 0.00 | 0.00 | 76 | 1011.2 |
| 20260507041304 | 17 | 146 | 1.6 | 4.8 | 0.00 | 0.00 | 0.00 | 76 | 1011.2 |
| 20260507041204 | 17 | 182 | 1.6 | 6.4 | 0.00 | 0.00 | 0.00 | 75 | 1011.2 |
| 20260507041104 | 17 | 179 | 1.6 | 6.4 | 0.00 | 0.00 | 0.00 | 75 | 1011.2 |
| 20260507041004 | 17 | 184 | 1.6 | 6.4 | 0.00 | 0.00 | 0.00 | 75 | 1011.2 |
| 20260507040904 | 17 | 194 | 1.6 | 9.7 | 0.00 | 0.00 | 0.00 | 75 | 1011.3 |
| 20260507040804 | 17 | 166 | 1.6 | 9.7 | 0.00 | 0.00 | 0.00 | 75 | 1011.3 |
| 20260507040704 | 17 | 153 | 1.6 | 9.7 | 0.00 | 0.00 | 0.00 | 75 | 1011.2 |
| 20260507040604 | 17 | 151 | 1.6 | 9.7 | 0.00 | 0.00 | 0.00 | 75 | 1011.2 |
| 20260507040504 | 17 | 148 | 1.6 | 9.7 | 0.00 | 0.00 | 0.00 | 75 | 1011.2 |
| 20260507040403 | 17 | 138 | 1.6 | 9.7 | 0.00 | 0.00 | 0.00 | 75 | 1011.2 |
| 20260507040206 | 17 | 118 | 1.6 | 9.7 | 0.00 | 0.00 | 0.00 | 76 | 1011.2 |
| 20260507040105 | 17 | 108 | 1.6 | 9.7 | 0.00 | 0.00 | 0.00 | 76 | 1011.2 |
| 20260507040004 | 17 | 100 | 1.6 | 9.7 | 0.00 | 0.00 | 0.00 | 76 | 1011.2 |
| 20260507035820 | 17 | 94 | 1.6 | 8.0 | 0.00 | 0.00 | 0.00 | 76 | 1011.2 |
| 20260507035704 | 17 | 75 | 1.6 | 6.4 | 0.00 | 0.00 | 0.00 | 77 | 1011.1 |
| 20260507035604 | 17 | 68 | 1.6 | 6.4 | 0.00 | 0.00 | 0.00 | 77 | 1011.1 |
| 20260507035504 | 17 | 66 | 1.6 | 6.4 | 0.00 | 0.00 | 0.00 | 77 | 1011.1 |
| 20260507035404 | 17 | 67 | 1.6 | 6.4 | 0.00 | 0.00 | 0.00 | 76 | 1011.0 |
| 20260507035306 | 17 | 67 | 0.0 | 6.4 | 0.00 | 0.00 | 0.00 | 76 | 1011.0 |
| 20260507035204 | 17 | 71 | 0.0 | 6.4 | 0.00 | 0.00 | 0.00 | 76 | 1011.0 |
| 20260507035104 | 17 | 75 | 0.0 | 6.4 | 0.00 | 0.00 | 0.00 | 76 | 1010.9 |
| 20260507035005 | 17 | 78 | 0.0 | 6.4 | 0.00 | 0.00 | 0.00 | 75 | 1010.9 |
| 20260507034908 | 17 | 79 | 0.0 | 6.4 | 0.00 | 0.00 | 0.00 | 73 | 1010.9 |
| 20260507034804 | 17 | 81 | 0.0 | 6.4 | 0.00 | 0.00 | 0.00 | 72 | 1010.9 |
| 20260507034706 | 17 | 104 | 0.0 | 6.4 | 0.00 | 0.00 | 0.00 | 71 | 1010.9 |
| 20260507034604 | 17 | 202 | 0.0 | 3.2 | 0.00 | 0.00 | 0.00 | 71 | 1010.9 |
| 20260507034504 | 17 | 202 | 0.0 | 3.2 | 0.00 | 0.00 | 0.00 | 72 | 1010.9 |
| 20260507034404 | 17 | 202 | 0.0 | 3.2 | 0.00 | 0.00 | 0.00 | 71 | 1010.9 |
| 20260507034304 | 17 | 202 | 0.0 | 3.2 | 0.00 | 0.00 | 0.00 | 71 | 1010.9 |
| 20260507034204 | 17 | 202 | 0.0 | 3.2 | 0.00 | 0.00 | 0.00 | 72 | 1010.9 |
| 20260507034104 | 17 | 202 | 0.0 | 1.6 | 0.00 | 0.00 | 0.00 | 73 | 1010.8 |
| 20260507034004 | 17 | 202 | 0.0 | 1.6 | 0.00 | 0.00 | 0.00 | 72 | 1010.8 |
| 20260507033903 | 17 | 202 | 0.0 | 1.6 | 0.00 | 0.00 | 0.00 | 71 | 1010.8 |
| 20260507033804 | 17 | 202 | 0.0 | 1.6 | 0.00 | 0.00 | 0.00 | 71 | 1010.8 |
| 20260507033704 | 17 | 202 | 0.0 | 1.6 | 0.00 | 0.00 | 0.00 | 71 | 1010.8 |
| 20260507033604 | 17 | 202 | 0.0 | 1.6 | 0.00 | 0.00 | 0.00 | 71 | 1010.8 |
| 20260507033504 | 17 | 203 | 0.0 | 1.6 | 0.00 | 0.00 | 0.00 | 70 | 1010.8 |
| 20260507033405 | 17 | 200 | 0.0 | 4.8 | 0.00 | 0.00 | 0.00 | 70 | 1010.8 |
| 20260507033304 | 17 | 198 | 0.0 | 4.8 | 0.00 | 0.00 | 0.00 | 70 | 1010.9 |
| 20260507033205 | 17 | 196 | 0.0 | 4.8 | 0.00 | 0.00 | 0.00 | 71 | 1010.9 |
| 20260507033104 | 17 | 195 | 0.0 | 4.8 | 0.00 | 0.00 | 0.00 | 71 | 1010.9 |
| 20260507033004 | 17 | 195 | 0.0 | 4.8 | 0.00 | 0.00 | 0.00 | 72 | 1010.8 |
| 20260507032904 | 17 | 195 | 0.0 | 4.8 | 0.00 | 0.00 | 0.00 | 72 | 1010.8 |
| 20260507032804 | 17 | 195 | 0.0 | 4.8 | 0.00 | 0.00 | 0.00 | 73 | 1010.9 |
| 20260507032703 | 18 | 194 | 0.0 | 4.8 | 0.00 | 0.00 | 0.00 | 73 | 1010.9 |
| 20260507032604 | 18 | 194 | 0.0 | 4.8 | 0.00 | 0.00 | 0.00 | 73 | 1010.9 |
| 20260507032505 | 18 | 193 | 0.0 | 4.8 | 0.00 | 0.00 | 0.00 | 73 | 1010.8 |
| 20260507032404 | 18 | 189 | 0.0 | 3.2 | 0.00 | 0.00 | 0.00 | 73 | 1010.8 |
| 20260507032306 | 18 | 185 | 0.0 | 3.2 | 0.00 | 0.00 | 0.00 | 73 | 1010.9 |
| 20260507032204 | 18 | 183 | 0.0 | 3.2 | 0.00 | 0.00 | 0.00 | 69 | 1010.9 |
| 20260507032104 | 17 | 193 | 0.0 | 3.2 | 0.00 | 0.00 | 0.00 | 67 | 1010.7 |
| 20260507032003 | 17 | 193 | 0.0 | 3.2 | 0.00 | 0.00 | 0.00 | 67 | 1010.7 |
| 20260507031905 | 17 | 193 | 0.0 | 3.2 | 0.00 | 0.00 | 0.00 | 67 | 1010.7 |
| 20260507031805 | 17 | 193 | 0.0 | 3.2 | 0.00 | 0.00 | 0.00 | 67 | 1010.7 |
| 20260507031704 | 17 | 197 | 0.0 | 3.2 | 0.00 | 0.00 | 0.00 | 67 | 1010.8 |
| 20260507031605 | 17 | 198 | 0.0 | 3.2 | 0.00 | 0.00 | 0.00 | 67 | 1010.8 |
| 20260507031504 | 17 | 202 | 0.0 | 3.2 | 0.00 | 0.00 | 0.00 | 67 | 1010.8 |
| 20260507031404 | 17 | 203 | 0.0 | 3.2 | 0.00 | 0.00 | 0.00 | 67 | 1010.8 |
| 20260507031304 | 17 | 206 | 0.0 | 3.2 | 0.00 | 0.00 | 0.00 | 67 | 1010.8 |
| 20260507031205 | 17 | 214 | 0.0 | 4.8 | 0.00 | 0.00 | 0.00 | 67 | 1010.8 |
| 20260507031104 | 17 | 213 | 0.0 | 4.8 | 0.00 | 0.00 | 0.00 | 68 | 1010.8 |
| 20260507031005 | 17 | 212 | 0.0 | 4.8 | 0.00 | 0.00 | 0.00 | 68 | 1010.8 |
| 20260507030905 | 17 | 210 | 0.0 | 4.8 | 0.00 | 0.00 | 0.00 | 68 | 1010.8 |
| 20260507030805 | 17 | 208 | 0.0 | 4.8 | 0.00 | 0.00 | 0.00 | 68 | 1010.8 |
| 20260507030704 | 17 | 203 | 1.6 | 4.8 | 0.00 | 0.00 | 0.00 | 68 | 1010.8 |
| 20260507030604 | 17 | 200 | 1.6 | 4.8 | 0.00 | 0.00 | 0.00 | 69 | 1010.8 |
| 20260507030505 | 17 | 194 | 1.6 | 4.8 | 0.00 | 0.00 | 0.00 | 69 | 1010.9 |
| 20260507030405 | 17 | 190 | 1.6 | 4.8 | 0.00 | 0.00 | 0.00 | 69 | 1010.9 |
| 20260507030306 | 17 | 187 | 1.6 | 4.8 | 0.00 | 0.00 | 0.00 | 70 | 1010.9 |
| 20260507030204 | 17 | 180 | 1.6 | 4.8 | 0.00 | 0.00 | 0.00 | 70 | 1010.8 |
| 20260507030105 | 17 | 179 | 1.6 | 4.8 | 0.00 | 0.00 | 0.00 | 70 | 1010.8 |
| 20260507030005 | 17 | 181 | 1.6 | 4.8 | 0.00 | 0.00 | 0.00 | 71 | 1010.8 |
| 20260507025905 | 17 | 184 | 1.6 | 4.8 | 0.00 | 0.00 | 0.00 | 71 | 1010.8 |
| 20260507025804 | 17 | 185 | 1.6 | 4.8 | 0.00 | 0.00 | 0.00 | 71 | 1010.8 |
| 20260507025704 | 17 | 189 | 1.6 | 4.8 | 0.00 | 0.00 | 0.00 | 71 | 1010.7 |
| 20260507025604 | 17 | 194 | 1.6 | 4.8 | 0.00 | 0.00 | 0.00 | 71 | 1010.7 |
| 20260507025505 | 17 | 196 | 1.6 | 4.8 | 0.00 | 0.00 | 0.00 | 72 | 1010.7 |
| 20260507025404 | 17 | 201 | 1.6 | 4.8 | 0.00 | 0.00 | 0.00 | 72 | 1010.8 |
| 20260507025306 | 17 | 203 | 1.6 | 4.8 | 0.00 | 0.00 | 0.00 | 72 | 1010.8 |
| 20260507025205 | 17 | 205 | 1.6 | 4.8 | 0.00 | 0.00 | 0.00 | 72 | 1010.8 |
| 20260507025105 | 17 | 211 | 1.6 | 6.4 | 0.00 | 0.00 | 0.00 | 73 | 1010.8 |
| 20260507025007 | 17 | 210 | 1.6 | 6.4 | 0.00 | 0.00 | 0.00 | 73 | 1010.9 |
| 20260507024905 | 17 | 209 | 1.6 | 6.4 | 0.00 | 0.00 | 0.00 | 73 | 1010.8 |
| 20260507024804 | 17 | 211 | 3.2 | 6.4 | 0.00 | 0.00 | 0.00 | 73 | 1010.8 |
| 20260507024705 | 17 | 213 | 3.2 | 6.4 | 0.00 | 0.00 | 0.00 | 74 | 1010.8 |
| 20260507024606 | 17 | 213 | 3.2 | 6.4 | 0.00 | 0.00 | 0.00 | 74 | 1010.7 |
| 20260507024505 | 17 | 211 | 3.2 | 6.4 | 0.00 | 0.00 | 0.00 | 74 | 1010.7 |
| 20260507024405 | 17 | 209 | 3.2 | 6.4 | 0.00 | 0.00 | 0.00 | 74 | 1010.6 |
| 20260507024305 | 17 | 209 | 3.2 | 6.4 | 0.00 | 0.00 | 0.00 | 75 | 1010.6 |
| 20260507024205 | 17 | 208 | 3.2 | 6.4 | 0.00 | 0.00 | 0.00 | 75 | 1010.5 |
| 20260507024105 | 17 | 206 | 3.2 | 6.4 | 0.00 | 0.00 | 0.00 | 75 | 1010.5 |
| 20260507024005 | 17 | 205 | 3.2 | 6.4 | 0.00 | 0.00 | 0.00 | 75 | 1010.5 |
| 20260507023906 | 17 | 205 | 3.2 | 6.4 | 0.00 | 0.00 | 0.00 | 75 | 1010.5 |
| 20260507023807 | 17 | 207 | 3.2 | 6.4 | 0.00 | 0.00 | 0.00 | 75 | 1010.5 |
| 20260507023705 | 17 | 207 | 3.2 | 6.4 | 0.00 | 0.00 | 0.00 | 75 | 1010.5 |
| 20260507023606 | 17 | 208 | 3.2 | 6.4 | 0.00 | 0.00 | 0.00 | 75 | 1010.8 |
| 20260507023506 | 17 | 210 | 3.2 | 6.4 | 0.00 | 0.00 | 0.00 | 76 | 1010.8 |
| 20260507023414 | 17 | 209 | 3.2 | 8.0 | 0.00 | 0.00 | 0.00 | 76 | 1010.7 |
| 20260507023306 | 17 | 207 | 3.2 | 8.0 | 0.00 | 0.00 | 0.00 | 76 | 1010.7 |
| 20260507023215 | 17 | 207 | 3.2 | 8.0 | 0.00 | 0.00 | 0.00 | 76 | 1010.7 |
| 20260507023114 | 17 | 205 | 3.2 | 8.0 | 0.00 | 0.00 | 0.00 | 77 | 1010.7 |
| 20260507023005 | 17 | 201 | 3.2 | 8.0 | 0.00 | 0.00 | 0.00 | 77 | 1010.7 |
| 20260507022905 | 17 | 201 | 3.2 | 8.0 | 0.00 | 0.00 | 0.00 | 77 | 1010.7 |
| 20260507022804 | 17 | 200 | 3.2 | 8.0 | 0.00 | 0.00 | 0.00 | 77 | 1010.7 |
| 20260507022705 | 17 | 197 | 3.2 | 8.0 | 0.00 | 0.00 | 0.00 | 77 | 1010.7 |
| 20260507022605 | 17 | 197 | 3.2 | 8.0 | 0.00 | 0.00 | 0.00 | 77 | 1010.6 |
| 20260507022505 | 17 | 196 | 3.2 | 8.0 | 0.00 | 0.00 | 0.00 | 77 | 1010.6 |
| 20260507022405 | 17 | 197 | 3.2 | 6.4 | 0.00 | 0.00 | 0.00 | 77 | 1010.6 |
| 20260507022306 | 17 | 195 | 3.2 | 6.4 | 0.00 | 0.00 | 0.00 | 77 | 1010.7 |
| 20260507022204 | 17 | 196 | 3.2 | 6.4 | 0.00 | 0.00 | 0.00 | 77 | 1010.7 |
| 20260507022104 | 17 | 198 | 3.2 | 6.4 | 0.00 | 0.00 | 0.00 | 77 | 1010.8 |
| 20260507022007 | 17 | 205 | 3.2 | 6.4 | 0.00 | 0.00 | 0.00 | 78 | 1010.8 |
| 20260507021905 | 17 | 207 | 3.2 | 9.7 | 0.00 | 0.00 | 0.00 | 78 | 1010.9 |
| 20260507021805 | 17 | 207 | 3.2 | 9.7 | 0.00 | 0.00 | 0.00 | 78 | 1011.0 |
| 20260507021705 | 17 | 208 | 3.2 | 9.7 | 0.00 | 0.00 | 0.00 | 78 | 1011.0 |
| 20260507021606 | 17 | 208 | 3.2 | 9.7 | 0.00 | 0.00 | 0.00 | 79 | 1010.9 |
| 20260507021504 | 17 | 208 | 3.2 | 9.7 | 0.00 | 0.00 | 0.00 | 79 | 1010.9 |
| 20260507021404 | 17 | 207 | 3.2 | 9.7 | 0.00 | 0.00 | 0.00 | 79 | 1011.0 |
| 20260507021304 | 17 | 209 | 3.2 | 9.7 | 0.00 | 0.00 | 0.00 | 80 | 1011.0 |
| 20260507021204 | 17 | 210 | 3.2 | 9.7 | 0.00 | 0.00 | 0.00 | 80 | 1011.0 |
| 20260507021104 | 17 | 211 | 3.2 | 9.7 | 0.00 | 0.00 | 0.00 | 80 | 1011.0 |
| 20260507021005 | 17 | 209 | 3.2 | 9.7 | 0.00 | 0.00 | 0.00 | 80 | 1010.9 |
| 20260507020904 | 17 | 207 | 3.2 | 9.7 | 0.00 | 0.00 | 0.00 | 80 | 1010.9 |
| 20260507020804 | 17 | 208 | 3.2 | 9.7 | 0.00 | 0.00 | 0.00 | 80 | 1010.9 |
| 20260507020704 | 17 | 209 | 3.2 | 9.7 | 0.00 | 0.00 | 0.00 | 80 | 1010.9 |
| 20260507020604 | 17 | 210 | 3.2 | 11.3 | 0.00 | 0.00 | 0.00 | 81 | 1011.0 |
| 20260507020507 | 17 | 211 | 3.2 | 11.3 | 0.00 | 0.00 | 0.00 | 81 | 1011.1 |
| 20260507020407 | 17 | 213 | 3.2 | 11.3 | 0.00 | 0.00 | 0.00 | 81 | 1011.1 |
| 20260507020304 | 17 | 213 | 3.2 | 11.3 | 0.00 | 0.00 | 0.00 | 81 | 1011.0 |
| 20260507020205 | 17 | 214 | 3.2 | 11.3 | 0.00 | 0.00 | 0.00 | 82 | 1011.0 |
| 20260507020105 | 17 | 213 | 3.2 | 11.3 | 0.00 | 0.00 | 0.00 | 82 | 1011.1 |
| 20260507020004 | 17 | 213 | 3.2 | 11.3 | 0.00 | 0.00 | 0.00 | 82 | 1011.0 |
| 20260507015904 | 17 | 210 | 3.2 | 11.3 | 0.00 | 0.00 | 0.00 | 82 | 1011.0 |
| 20260507015804 | 17 | 210 | 3.2 | 11.3 | 0.00 | 0.00 | 0.00 | 82 | 1011.0 |
| 20260507015704 | 17 | 210 | 3.2 | 11.3 | 0.00 | 0.00 | 0.00 | 82 | 1011.0 |
| 20260507015604 | 17 | 209 | 3.2 | 11.3 | 0.00 | 0.00 | 0.00 | 83 | 1011.0 |
| 20260507015504 | 17 | 209 | 3.2 | 9.7 | 0.00 | 0.00 | 0.00 | 83 | 1010.9 |
| 20260507015404 | 17 | 208 | 3.2 | 9.7 | 0.00 | 0.00 | 0.00 | 83 | 1010.9 |
| 20260507015306 | 17 | 208 | 3.2 | 9.7 | 0.00 | 0.00 | 0.00 | 83 | 1010.9 |
| 20260507015204 | 17 | 206 | 4.8 | 9.7 | 0.00 | 0.00 | 0.00 | 83 | 1010.8 |
| 20260507015104 | 17 | 207 | 4.8 | 9.7 | 0.00 | 0.00 | 0.00 | 83 | 1010.8 |
| 20260507015005 | 17 | 205 | 3.2 | 9.7 | 0.00 | 0.00 | 0.00 | 83 | 1010.8 |
| 20260507014904 | 17 | 208 | 3.2 | 9.7 | 0.00 | 0.00 | 0.00 | 83 | 1010.8 |
| 20260507014804 | 17 | 206 | 3.2 | 9.7 | 0.00 | 0.00 | 0.00 | 83 | 1010.9 |
| 20260507014705 | 17 | 206 | 3.2 | 9.7 | 0.00 | 0.00 | 0.00 | 83 | 1010.9 |
| 20260507014605 | 17 | 205 | 3.2 | 9.7 | 0.00 | 0.00 | 0.00 | 83 | 1010.9 |
| 20260507014505 | 17 | 200 | 3.2 | 8.0 | 0.00 | 0.00 | 0.00 | 83 | 1010.9 |
| 20260507014404 | 17 | 199 | 3.2 | 8.0 | 0.00 | 0.00 | 0.00 | 83 | 1010.9 |
| 20260507014304 | 17 | 197 | 3.2 | 8.0 | 0.00 | 0.00 | 0.00 | 83 | 1010.8 |
| 20260507014204 | 17 | 198 | 3.2 | 8.0 | 0.00 | 0.00 | 0.00 | 83 | 1010.8 |
| 20260507014104 | 17 | 196 | 4.8 | 8.0 | 0.00 | 0.00 | 0.00 | 83 | 1010.8 |
| 20260507014004 | 17 | 197 | 4.8 | 8.0 | 0.00 | 0.00 | 0.00 | 83 | 1010.8 |
| 20260507013904 | 17 | 195 | 4.8 | 11.3 | 0.00 | 0.00 | 0.00 | 83 | 1010.8 |
| 20260507013804 | 17 | 198 | 4.8 | 11.3 | 0.00 | 0.00 | 0.00 | 82 | 1010.8 |
| 20260507013704 | 17 | 198 | 4.8 | 11.3 | 0.00 | 0.00 | 0.00 | 82 | 1010.9 |
| 20260507013604 | 17 | 197 | 4.8 | 11.3 | 0.00 | 0.00 | 0.00 | 82 | 1010.9 |
| 20260507013506 | 17 | 202 | 4.8 | 11.3 | 0.00 | 0.00 | 0.00 | 82 | 1010.9 |
| 20260507013405 | 17 | 203 | 4.8 | 11.3 | 0.00 | 0.00 | 0.00 | 82 | 1011.0 |
| 20260507013305 | 17 | 203 | 4.8 | 11.3 | 0.00 | 0.00 | 0.00 | 82 | 1011.0 |
| 20260507013106 | 17 | 204 | 4.8 | 11.3 | 0.00 | 0.00 | 0.00 | 82 | 1011.0 |
| 20260507013004 | 17 | 205 | 4.8 | 11.3 | 0.00 | 0.00 | 0.00 | 82 | 1011.1 |
| 20260507012904 | 17 | 207 | 4.8 | 11.3 | 0.00 | 0.00 | 0.00 | 82 | 1011.2 |
| 20260507012804 | 17 | 205 | 4.8 | 11.3 | 0.00 | 0.00 | 0.00 | 82 | 1011.2 |
| 20260507012704 | 17 | 206 | 4.8 | 11.3 | 0.00 | 0.00 | 0.00 | 82 | 1011.3 |
| 20260507012604 | 17 | 207 | 4.8 | 11.3 | 0.00 | 0.00 | 0.00 | 82 | 1011.3 |
| 20260507012504 | 17 | 206 | 4.8 | 11.3 | 0.00 | 0.00 | 0.00 | 82 | 1011.2 |
| 20260507012404 | 17 | 206 | 4.8 | 11.3 | 0.00 | 0.00 | 0.00 | 82 | 1011.3 |
| 20260507012306 | 17 | 209 | 4.8 | 11.3 | 0.00 | 0.00 | 0.00 | 82 | 1011.3 |
| 20260507012204 | 17 | 208 | 4.8 | 11.3 | 0.00 | 0.00 | 0.00 | 82 | 1011.3 |
| 20260507012104 | 17 | 208 | 4.8 | 11.3 | 0.00 | 0.00 | 0.00 | 82 | 1011.2 |
| 20260507012004 | 17 | 208 | 4.8 | 12.9 | 0.00 | 0.00 | 0.00 | 82 | 1011.2 |
| 20260507011908 | 17 | 207 | 4.8 | 12.9 | 0.00 | 0.00 | 0.00 | 82 | 1011.2 |
| 20260507011805 | 17 | 208 | 4.8 | 12.9 | 0.00 | 0.00 | 0.00 | 82 | 1011.2 |
| 20260507011703 | 17 | 208 | 4.8 | 12.9 | 0.00 | 0.00 | 0.00 | 82 | 1011.2 |
| 20260507011605 | 17 | 209 | 4.8 | 12.9 | 0.00 | 0.00 | 0.00 | 82 | 1011.2 |
| 20260507011504 | 17 | 208 | 6.4 | 12.9 | 0.00 | 0.00 | 0.00 | 82 | 1011.2 |
| 20260507011404 | 17 | 208 | 6.4 | 12.9 | 0.00 | 0.00 | 0.00 | 82 | 1011.1 |
| 20260507011304 | 17 | 206 | 6.4 | 12.9 | 0.00 | 0.00 | 0.00 | 82 | 1011.1 |
| 20260507011204 | 17 | 206 | 6.4 | 12.9 | 0.00 | 0.00 | 0.00 | 82 | 1011.1 |
| 20260507011104 | 17 | 206 | 6.4 | 12.9 | 0.00 | 0.00 | 0.00 | 82 | 1011.2 |
| 20260507011004 | 17 | 205 | 6.4 | 12.9 | 0.00 | 0.00 | 0.00 | 82 | 1011.2 |
| 20260507010903 | 17 | 205 | 6.4 | 12.9 | 0.00 | 0.00 | 0.00 | 82 | 1011.2 |
| 20260507010804 | 17 | 204 | 6.4 | 12.9 | 0.00 | 0.00 | 0.00 | 82 | 1011.2 |
| 20260507010703 | 17 | 200 | 6.4 | 12.9 | 0.00 | 0.00 | 0.00 | 82 | 1011.3 |
| 20260507010604 | 17 | 200 | 6.4 | 12.9 | 0.00 | 0.00 | 0.00 | 82 | 1011.2 |
| 20260507010503 | 17 | 200 | 6.4 | 12.9 | 0.00 | 0.00 | 0.00 | 82 | 1011.2 |
| 20260507010408 | 17 | 197 | 6.4 | 12.9 | 0.00 | 0.00 | 0.00 | 82 | 1011.3 |
| 20260507010304 | 17 | 197 | 6.4 | 16.1 | 0.00 | 0.00 | 0.00 | 82 | 1011.2 |
| 20260507010203 | 17 | 197 | 6.4 | 16.1 | 0.00 | 0.00 | 0.00 | 82 | 1011.2 |
| 20260507010106 | 17 | 196 | 6.4 | 16.1 | 0.00 | 0.00 | 0.00 | 82 | 1011.3 |
| 20260507010012 | 17 | 195 | 6.4 | 16.1 | 0.00 | 0.00 | 0.00 | 82 | 1011.3 |
| 20260507005905 | 17 | 193 | 6.4 | 16.1 | 0.00 | 0.00 | 0.00 | 82 | 1011.3 |
| 20260507005805 | 17 | 193 | 6.4 | 16.1 | 0.00 | 0.00 | 0.00 | 82 | 1011.4 |
| 20260507005704 | 17 | 196 | 6.4 | 16.1 | 0.00 | 0.00 | 0.00 | 82 | 1011.4 |
| 20260507005605 | 17 | 195 | 6.4 | 16.1 | 0.00 | 0.00 | 0.00 | 82 | 1011.3 |
| 20260507005505 | 17 | 197 | 6.4 | 16.1 | 0.00 | 0.00 | 0.00 | 82 | 1011.3 |
| 20260507005405 | 17 | 198 | 6.4 | 16.1 | 0.00 | 0.00 | 0.00 | 82 | 1011.3 |
| 20260507005306 | 17 | 199 | 4.8 | 11.3 | 0.00 | 0.00 | 0.00 | 82 | 1011.3 |
| 20260507005205 | 17 | 198 | 4.8 | 11.3 | 0.00 | 0.00 | 0.00 | 81 | 1011.3 |
| 20260507005104 | 17 | 196 | 4.8 | 11.3 | 0.00 | 0.00 | 0.00 | 81 | 1011.3 |
| 20260507005006 | 17 | 197 | 4.8 | 11.3 | 0.00 | 0.00 | 0.00 | 81 | 1011.3 |
| 20260507004905 | 17 | 199 | 4.8 | 11.3 | 0.00 | 0.00 | 0.00 | 81 | 1011.2 |
| 20260507004810 | 17 | 198 | 4.8 | 11.3 | 0.00 | 0.00 | 0.00 | 81 | 1011.3 |
| 20260507004705 | 17 | 197 | 4.8 | 11.3 | 0.00 | 0.00 | 0.00 | 81 | 1011.3 |
| 20260507004606 | 17 | 196 | 4.8 | 11.3 | 0.00 | 0.00 | 0.00 | 81 | 1011.2 |
| 20260507004505 | 17 | 193 | 4.8 | 11.3 | 0.00 | 0.00 | 0.00 | 81 | 1011.3 |
| 20260507004404 | 17 | 194 | 4.8 | 11.3 | 0.00 | 0.00 | 0.00 | 81 | 1011.3 |
| 20260507004305 | 17 | 194 | 4.8 | 11.3 | 0.00 | 0.00 | 0.00 | 81 | 1011.3 |
| 20260507004205 | 17 | 195 | 4.8 | 11.3 | 0.00 | 0.00 | 0.00 | 81 | 1011.3 |
| 20260507004105 | 17 | 195 | 4.8 | 9.7 | 0.00 | 0.00 | 0.00 | 81 | 1011.4 |
| 20260507004005 | 17 | 196 | 3.2 | 9.7 | 0.00 | 0.00 | 0.00 | 81 | 1011.4 |
| 20260507003905 | 17 | 196 | 3.2 | 9.7 | 0.00 | 0.00 | 0.00 | 81 | 1011.4 |
| 20260507003804 | 17 | 197 | 3.2 | 9.7 | 0.00 | 0.00 | 0.00 | 81 | 1011.6 |
| 20260507003705 | 17 | 198 | 3.2 | 9.7 | 0.00 | 0.00 | 0.00 | 81 | 1011.6 |
| 20260507003605 | 17 | 199 | 3.2 | 9.7 | 0.00 | 0.00 | 0.00 | 81 | 1011.6 |
| 20260507003504 | 17 | 202 | 3.2 | 8.0 | 0.00 | 0.00 | 0.00 | 81 | 1011.6 |
| 20260507003405 | 17 | 202 | 3.2 | 8.0 | 0.00 | 0.00 | 0.00 | 81 | 1011.6 |
| 20260507003307 | 17 | 203 | 3.2 | 8.0 | 0.00 | 0.00 | 0.00 | 81 | 1011.7 |
| 20260507003204 | 17 | 202 | 3.2 | 8.0 | 0.00 | 0.00 | 0.00 | 81 | 1011.7 |
| 20260507003105 | 17 | 202 | 3.2 | 8.0 | 0.00 | 0.00 | 0.00 | 81 | 1011.6 |
| 20260507003004 | 17 | 198 | 3.2 | 8.0 | 0.00 | 0.00 | 0.00 | 81 | 1011.6 |
| 20260507002905 | 17 | 198 | 3.2 | 8.0 | 0.00 | 0.00 | 0.00 | 81 | 1011.6 |
| 20260507002824 | 17 | 198 | 3.2 | 8.0 | 0.00 | 0.00 | 0.00 | 81 | 1011.7 |
| 20260507002722 | 17 | 197 | 3.2 | 8.0 | 0.00 | 0.00 | 0.00 | 81 | 1011.7 |
| 20260507002620 | 17 | 195 | 3.2 | 8.0 | 0.00 | 0.00 | 0.00 | 81 | 1011.8 |
| 20260507002524 | 17 | 195 | 3.2 | 8.0 | 0.00 | 0.00 | 0.00 | 81 | 1011.7 |
| 20260507002420 | 17 | 193 | 3.2 | 8.0 | 0.00 | 0.00 | 0.00 | 81 | 1011.7 |
| 20260507002312 | 17 | 193 | 3.2 | 8.0 | 0.00 | 0.00 | 0.00 | 82 | 1011.7 |
| 20260507002223 | 17 | 191 | 3.2 | 8.0 | 0.00 | 0.00 | 0.00 | 82 | 1011.7 |
| 20260507002123 | 17 | 197 | 3.2 | 8.0 | 0.00 | 0.00 | 0.00 | 82 | 1011.8 |
| 20260507002023 | 17 | 201 | 3.2 | 8.0 | 0.00 | 0.00 | 0.00 | 82 | 1011.9 |
| 20260507001919 | 17 | 201 | 3.2 | 8.0 | 0.00 | 0.00 | 0.00 | 82 | 1011.9 |
| 20260507001823 | 17 | 202 | 3.2 | 8.0 | 0.00 | 0.00 | 0.00 | 82 | 1011.9 |
| 20260507001706 | 17 | 203 | 3.2 | 8.0 | 0.00 | 0.00 | 0.00 | 82 | 1011.9 |
| 20260507001606 | 17 | 204 | 3.2 | 8.0 | 0.00 | 0.00 | 0.00 | 82 | 1011.9 |
| 20260507001504 | 17 | 203 | 3.2 | 8.0 | 0.00 | 0.00 | 0.00 | 82 | 1011.9 |
| 20260507001404 | 17 | 204 | 3.2 | 8.0 | 0.00 | 0.00 | 0.00 | 82 | 1011.9 |
| 20260507001304 | 17 | 205 | 3.2 | 8.0 | 0.00 | 0.00 | 0.00 | 82 | 1011.9 |
| 20260507001204 | 17 | 207 | 3.2 | 8.0 | 0.00 | 0.00 | 0.00 | 82 | 1011.8 |
| 20260507001104 | 17 | 206 | 4.8 | 9.7 | 0.00 | 0.00 | 0.00 | 82 | 1011.8 |
| 20260507001004 | 17 | 206 | 4.8 | 9.7 | 0.00 | 0.00 | 0.00 | 82 | 1011.9 |
| 20260507000904 | 17 | 208 | 4.8 | 9.7 | 0.00 | 0.00 | 0.00 | 82 | 1011.8 |
| 20260507000804 | 17 | 205 | 4.8 | 11.3 | 0.00 | 0.00 | 0.00 | 82 | 1011.8 |
| 20260507000704 | 17 | 206 | 4.8 | 11.3 | 0.00 | 0.00 | 0.00 | 82 | 1011.9 |
| 20260507000604 | 17 | 205 | 4.8 | 11.3 | 0.00 | 0.00 | 0.00 | 83 | 1011.9 |
| 20260507000504 | 17 | 202 | 4.8 | 11.3 | 0.00 | 0.00 | 0.00 | 83 | 1011.8 |
| 20260507000406 | 17 | 202 | 4.8 | 11.3 | 0.00 | 0.00 | 0.00 | 83 | 1011.9 |
| 20260507000306 | 17 | 199 | 4.8 | 11.3 | 0.00 | 0.00 | 0.00 | 83 | 1011.9 |
| 20260507000205 | 17 | 196 | 4.8 | 11.3 | 0.00 | 0.00 | 0.00 | 83 | 1011.9 |
| 20260507000106 | 17 | 198 | 4.8 | 11.3 | 0.00 | 0.00 | 0.00 | 83 | 1011.9 |
| 20260507000005 | 17 | 198 | 4.8 | 11.3 | 0.00 | 0.00 | 0.00 | 83 | 1011.8 |
| 20260506235904 | 17 | 198 | 4.8 | 11.3 | 0.00 | 0.00 | 0.00 | 83 | 1011.7 |
| 20260506235804 | 17 | 199 | 4.8 | 11.3 | 0.00 | 0.00 | 0.00 | 83 | 1011.7 |
| 20260506235704 | 17 | 198 | 4.8 | 11.3 | 0.00 | 0.00 | 0.00 | 83 | 1011.8 |
| 20260506235604 | 17 | 197 | 4.8 | 11.3 | 0.00 | 0.00 | 0.00 | 83 | 1011.8 |
| 20260506235505 | 17 | 201 | 4.8 | 11.3 | 0.00 | 0.00 | 0.00 | 83 | 1011.8 |
| 20260506235404 | 17 | 202 | 6.4 | 11.3 | 0.00 | 0.00 | 0.00 | 83 | 1011.7 |
| 20260506235306 | 17 | 205 | 6.4 | 11.3 | 0.00 | 0.00 | 0.00 | 83 | 1011.7 |
| 20260506235203 | 17 | 207 | 6.4 | 11.3 | 0.00 | 0.00 | 0.00 | 83 | 1011.7 |
| 20260506235103 | 17 | 205 | 6.4 | 11.3 | 0.00 | 0.00 | 0.00 | 83 | 1011.8 |
| 20260506235006 | 17 | 205 | 6.4 | 11.3 | 0.00 | 0.00 | 0.00 | 83 | 1011.8 |
| 20260506234909 | 17 | 205 | 6.4 | 11.3 | 0.00 | 0.00 | 0.00 | 83 | 1011.8 |
| 20260506234805 | 17 | 207 | 6.4 | 12.9 | 0.00 | 0.00 | 0.00 | 83 | 1011.8 |
| 20260506234704 | 17 | 209 | 8.0 | 12.9 | 0.00 | 0.00 | 0.00 | 83 | 1011.8 |
| 20260506234605 | 17 | 209 | 8.0 | 12.9 | 0.00 | 0.00 | 0.00 | 83 | 1011.9 |
| 20260506234504 | 17 | 206 | 8.0 | 12.9 | 0.00 | 0.00 | 0.00 | 83 | 1011.9 |
| 20260506234404 | 17 | 206 | 8.0 | 14.5 | 0.00 | 0.00 | 0.00 | 83 | 1011.9 |
| 20260506234304 | 17 | 206 | 8.0 | 14.5 | 0.00 | 0.00 | 0.00 | 83 | 1012.0 |
| 20260506234203 | 17 | 208 | 8.0 | 14.5 | 0.00 | 0.00 | 0.00 | 83 | 1012.0 |
| 20260506234104 | 17 | 208 | 8.0 | 14.5 | 0.00 | 0.00 | 0.00 | 83 | 1011.9 |
| 20260506234004 | 17 | 207 | 8.0 | 14.5 | 0.00 | 0.00 | 0.00 | 83 | 1011.9 |
| 20260506233904 | 17 | 208 | 8.0 | 19.3 | 0.00 | 0.00 | 0.00 | 83 | 1011.8 |
| 20260506233803 | 17 | 207 | 8.0 | 19.3 | 0.00 | 0.00 | 0.00 | 83 | 1011.8 |
| 20260506233703 | 17 | 207 | 8.0 | 19.3 | 0.00 | 0.00 | 0.00 | 83 | 1011.8 |
| 20260506233603 | 17 | 208 | 8.0 | 19.3 | 0.00 | 0.00 | 0.00 | 83 | 1011.6 |
| 20260506233505 | 17 | 209 | 8.0 | 19.3 | 0.00 | 0.00 | 0.00 | 83 | 1011.6 |
| 20260506233404 | 17 | 209 | 8.0 | 19.3 | 0.00 | 0.00 | 0.00 | 83 | 1011.7 |
| 20260506233304 | 17 | 207 | 8.0 | 19.3 | 0.00 | 0.00 | 0.00 | 82 | 1011.6 |
| 20260506233205 | 17 | 206 | 8.0 | 19.3 | 0.00 | 0.00 | 0.00 | 82 | 1011.6 |
| 20260506233004 | 17 | 207 | 8.0 | 19.3 | 0.00 | 0.00 | 0.00 | 82 | 1011.6 |
| 20260506232904 | 17 | 206 | 8.0 | 19.3 | 0.00 | 0.00 | 0.00 | 82 | 1011.5 |
| 20260506232804 | 17 | 206 | 8.0 | 17.7 | 0.00 | 0.00 | 0.00 | 82 | 1011.5 |
| 20260506232705 | 17 | 208 | 8.0 | 17.7 | 0.00 | 0.00 | 0.00 | 82 | 1011.5 |
| 20260506232605 | 17 | 207 | 8.0 | 17.7 | 0.00 | 0.00 | 0.00 | 82 | 1011.5 |
| 20260506232504 | 17 | 209 | 8.0 | 22.5 | 0.00 | 0.00 | 0.00 | 82 | 1011.5 |
| 20260506232404 | 17 | 210 | 8.0 | 22.5 | 0.00 | 0.00 | 0.00 | 82 | 1011.5 |
| 20260506232306 | 17 | 213 | 8.0 | 22.5 | 0.00 | 0.00 | 0.00 | 83 | 1011.5 |
| 20260506232204 | 17 | 211 | 8.0 | 22.5 | 0.00 | 0.00 | 0.00 | 83 | 1011.5 |
| 20260506232104 | 17 | 209 | 8.0 | 22.5 | 0.00 | 0.00 | 0.00 | 83 | 1011.6 |
| 20260506232005 | 17 | 215 | 8.0 | 22.5 | 0.00 | 0.00 | 0.00 | 83 | 1011.5 |
| 20260506231904 | 17 | 217 | 8.0 | 22.5 | 0.00 | 0.00 | 0.00 | 83 | 1011.5 |
| 20260506231804 | 17 | 251 | 8.0 | 22.5 | 0.00 | 0.00 | 0.00 | 83 | 1011.4 |
| 20260506231704 | 17 | 17 | 8.0 | 22.5 | 0.00 | 0.00 | 0.00 | 83 | 1011.4 |
| 20260506231605 | 17 | 22 | 8.0 | 22.5 | 0.00 | 0.00 | 0.00 | 83 | 1011.4 |